Multibeam Report for MV1102


Ship Name: Melville
Chief Scientist: Frouin, Robert
Scripps Institution of Oceanography
Source Organization: Rolling Deck to Repository
Start Date: 2011-02-20
End Date: 2011-03-14


View ISO Metadata

Visit the full NCEI Bathymetry Viewer


Multibeam Bathymetry

Cruise Details

Project: Influence of Whitecaps on Aerosol and Ocean-Color Remote Sensing
Instrument: Kongsberg EM122

Data Quality

Number of Files: 1052
Number of Records: 816051
BATHYMETRY DATA Quantity Percentage
Number of Beams 352501200 100%
Number of Good Beams 257320394 73.0%
Number of Zero Beams 0 0%
Number of Flagged Beams 95180806 27.0%
AMPLITUDE DATA Quantity Percentage
Number of Beams 352501200 100%
Number of Good Beams 257320394 73.0%
Number of Zero Beams 0 0%
Number of Flagged Beams 95180806 27.0%
SIDESCAN DATA Quantity Percentage
Number of Pixels 835558400 100%
Number of Good Pixels 539382488 64.55%
Number of Zero Pixels 0 0%
Number of Flagged Pixels 296175912 35.45%

Navigation Totals

Total Time: 506.4787 hours
Total Track Length: 10155.046 km
Average Speed: 20.05 km/hr (10.8261 knots)

Cruise Bounds

Northern Extent: -33.220875
Southern Extent: -53.90928
Western Extent: -76.07171
Eastern Extent: 18.396492

Limits

Minimum Sonar Depth 0 Maximum Sonar Depth 10.2556
Minimum Altitude 7.4215 Maximum Altitude 7725.7642
Minimum Depth 11.0581 Maximum Depth 7736.8457
Minimum Amplitude 0 Maximum Amplitude 44.6
Minimum Sidescan 0 Maximum Sidescan 62.43

File Information

Full Resolution Bathymetry as collected (raw): 1049

Files File Size Description
0000_20110220_154156_melville.all.mb58.gz 19.40MB Kongsberg multibeam vendor format
0001_20110220_161152_melville.all.mb58.gz 19.90MB Kongsberg multibeam vendor format
0002_20110220_164147_melville.all.mb58.gz 20.11MB Kongsberg multibeam vendor format
0003_20110220_171149_melville.all.mb58.gz 20.22MB Kongsberg multibeam vendor format
0004_20110220_174150_melville.all.mb58.gz 20.31MB Kongsberg multibeam vendor format
0005_20110220_181155_melville.all.mb58.gz 20.05MB Kongsberg multibeam vendor format
0006_20110220_184149_melville.all.mb58.gz 18.57MB Kongsberg multibeam vendor format
0008_20110220_192246_melville.all.mb58.gz 52.76MB Kongsberg multibeam vendor format
0009_20110220_195230_melville.all.mb58.gz 47.22MB Kongsberg multibeam vendor format
0010_20110220_202232_melville.all.mb58.gz 38.20MB Kongsberg multibeam vendor format
0011_20110220_205232_melville.all.mb58.gz 38.58MB Kongsberg multibeam vendor format
0012_20110220_212236_melville.all.mb58.gz 35.34MB Kongsberg multibeam vendor format
0013_20110220_215235_melville.all.mb58.gz 32.04MB Kongsberg multibeam vendor format
0014_20110220_222239_melville.all.mb58.gz 30.34MB Kongsberg multibeam vendor format
0015_20110220_225237_melville.all.mb58.gz 30.52MB Kongsberg multibeam vendor format
0016_20110220_232238_melville.all.mb58.gz 29.71MB Kongsberg multibeam vendor format
0017_20110220_235244_melville.all.mb58.gz 29.05MB Kongsberg multibeam vendor format
0018_20110221_002239_melville.all.mb58.gz 25.12MB Kongsberg multibeam vendor format
0019_20110221_005230_melville.all.mb58.gz 24.55MB Kongsberg multibeam vendor format
0020_20110221_012250_melville.all.mb58.gz 23.79MB Kongsberg multibeam vendor format
0021_20110221_015253_melville.all.mb58.gz 23.45MB Kongsberg multibeam vendor format
0022_20110221_022248_melville.all.mb58.gz 23.05MB Kongsberg multibeam vendor format
0023_20110221_025232_melville.all.mb58.gz 23.36MB Kongsberg multibeam vendor format
0024_20110221_032240_melville.all.mb58.gz 23.24MB Kongsberg multibeam vendor format
0025_20110221_035251_melville.all.mb58.gz 23.10MB Kongsberg multibeam vendor format
0026_20110221_042244_melville.all.mb58.gz 22.94MB Kongsberg multibeam vendor format
0027_20110221_045230_melville.all.mb58.gz 23.29MB Kongsberg multibeam vendor format
0028_20110221_052257_melville.all.mb58.gz 22.56MB Kongsberg multibeam vendor format
0029_20110221_055236_melville.all.mb58.gz 22.82MB Kongsberg multibeam vendor format
0030_20110221_062242_melville.all.mb58.gz 22.95MB Kongsberg multibeam vendor format
0031_20110221_065248_melville.all.mb58.gz 22.81MB Kongsberg multibeam vendor format
0032_20110221_072248_melville.all.mb58.gz 22.59MB Kongsberg multibeam vendor format
0033_20110221_075232_melville.all.mb58.gz 22.73MB Kongsberg multibeam vendor format
0034_20110221_082231_melville.all.mb58.gz 22.96MB Kongsberg multibeam vendor format
0035_20110221_085252_melville.all.mb58.gz 22.44MB Kongsberg multibeam vendor format
0036_20110221_092248_melville.all.mb58.gz 22.62MB Kongsberg multibeam vendor format
0037_20110221_095252_melville.all.mb58.gz 22.61MB Kongsberg multibeam vendor format
0038_20110221_102252_melville.all.mb58.gz 22.65MB Kongsberg multibeam vendor format
0039_20110221_105256_melville.all.mb58.gz 22.17MB Kongsberg multibeam vendor format
0040_20110221_112234_melville.all.mb58.gz 22.76MB Kongsberg multibeam vendor format
0041_20110221_115243_melville.all.mb58.gz 22.81MB Kongsberg multibeam vendor format
0042_20110221_122239_melville.all.mb58.gz 22.89MB Kongsberg multibeam vendor format
0043_20110221_125245_melville.all.mb58.gz 22.73MB Kongsberg multibeam vendor format
0044_20110221_132243_melville.all.mb58.gz 22.52MB Kongsberg multibeam vendor format
0045_20110221_135233_melville.all.mb58.gz 22.86MB Kongsberg multibeam vendor format
0046_20110221_142240_melville.all.mb58.gz 22.61MB Kongsberg multibeam vendor format
0047_20110221_145230_melville.all.mb58.gz 22.85MB Kongsberg multibeam vendor format
0048_20110221_152247_melville.all.mb58.gz 22.53MB Kongsberg multibeam vendor format
0049_20110221_155246_melville.all.mb58.gz 1.38MB Kongsberg multibeam vendor format
0049_20110221_160256_melville.all.mb58.gz 22.66MB Kongsberg multibeam vendor format
0050_20110221_163303_melville.all.mb58.gz 22.49MB Kongsberg multibeam vendor format
0051_20110221_170259_melville.all.mb58.gz 22.45MB Kongsberg multibeam vendor format
0052_20110221_173254_melville.all.mb58.gz 22.41MB Kongsberg multibeam vendor format
0053_20110221_180247_melville.all.mb58.gz 22.52MB Kongsberg multibeam vendor format
0054_20110221_183244_melville.all.mb58.gz 22.89MB Kongsberg multibeam vendor format
0055_20110221_190309_melville.all.mb58.gz 22.37MB Kongsberg multibeam vendor format
0056_20110221_193301_melville.all.mb58.gz 22.31MB Kongsberg multibeam vendor format
0057_20110221_200247_melville.all.mb58.gz 22.91MB Kongsberg multibeam vendor format
0058_20110221_203311_melville.all.mb58.gz 22.50MB Kongsberg multibeam vendor format
0059_20110221_210303_melville.all.mb58.gz 22.55MB Kongsberg multibeam vendor format
0060_20110221_213259_melville.all.mb58.gz 22.53MB Kongsberg multibeam vendor format
0061_20110221_220302_melville.all.mb58.gz 22.50MB Kongsberg multibeam vendor format
0062_20110221_223259_melville.all.mb58.gz 22.29MB Kongsberg multibeam vendor format
0063_20110221_230245_melville.all.mb58.gz 22.55MB Kongsberg multibeam vendor format
0064_20110221_233248_melville.all.mb58.gz 22.58MB Kongsberg multibeam vendor format
0065_20110222_000259_melville.all.mb58.gz 22.37MB Kongsberg multibeam vendor format
0066_20110222_003257_melville.all.mb58.gz 22.22MB Kongsberg multibeam vendor format
0067_20110222_010243_melville.all.mb58.gz 22.74MB Kongsberg multibeam vendor format
0068_20110222_013311_melville.all.mb58.gz 22.09MB Kongsberg multibeam vendor format
0069_20110222_020253_melville.all.mb58.gz 22.28MB Kongsberg multibeam vendor format
0070_20110222_023251_melville.all.mb58.gz 22.37MB Kongsberg multibeam vendor format
0071_20110222_030250_melville.all.mb58.gz 22.49MB Kongsberg multibeam vendor format
0072_20110222_033306_melville.all.mb58.gz 22.13MB Kongsberg multibeam vendor format
0073_20110222_040248_melville.all.mb58.gz 22.57MB Kongsberg multibeam vendor format
0074_20110222_043300_melville.all.mb58.gz 22.54MB Kongsberg multibeam vendor format
0075_20110222_050310_melville.all.mb58.gz 22.16MB Kongsberg multibeam vendor format
0076_20110222_053255_melville.all.mb58.gz 22.54MB Kongsberg multibeam vendor format
0077_20110222_060308_melville.all.mb58.gz 22.04MB Kongsberg multibeam vendor format
0078_20110222_063246_melville.all.mb58.gz 22.39MB Kongsberg multibeam vendor format
0079_20110222_070245_melville.all.mb58.gz 22.50MB Kongsberg multibeam vendor format
0080_20110222_073256_melville.all.mb58.gz 22.24MB Kongsberg multibeam vendor format
0081_20110222_080243_melville.all.mb58.gz 22.80MB Kongsberg multibeam vendor format
0082_20110222_083315_melville.all.mb58.gz 22.20MB Kongsberg multibeam vendor format
0083_20110222_090314_melville.all.mb58.gz 21.81MB Kongsberg multibeam vendor format
0084_20110222_093301_melville.all.mb58.gz 21.92MB Kongsberg multibeam vendor format
0085_20110222_100257_melville.all.mb58.gz 22.22MB Kongsberg multibeam vendor format
0086_20110222_103309_melville.all.mb58.gz 21.85MB Kongsberg multibeam vendor format
0087_20110222_110241_melville.all.mb58.gz 22.40MB Kongsberg multibeam vendor format
0088_20110222_113306_melville.all.mb58.gz 22.16MB Kongsberg multibeam vendor format
0089_20110222_120302_melville.all.mb58.gz 22.20MB Kongsberg multibeam vendor format
0090_20110222_123302_melville.all.mb58.gz 22.18MB Kongsberg multibeam vendor format
0091_20110222_130300_melville.all.mb58.gz 22.21MB Kongsberg multibeam vendor format
0092_20110222_133259_melville.all.mb58.gz 22.11MB Kongsberg multibeam vendor format
0093_20110222_140252_melville.all.mb58.gz 22.08MB Kongsberg multibeam vendor format
0094_20110222_143239_melville.all.mb58.gz 22.44MB Kongsberg multibeam vendor format
0095_20110222_150258_melville.all.mb58.gz 22.08MB Kongsberg multibeam vendor format
0096_20110222_153247_melville.all.mb58.gz 22.51MB Kongsberg multibeam vendor format
0097_20110222_160307_melville.all.mb58.gz 22.05MB Kongsberg multibeam vendor format
0098_20110222_163255_melville.all.mb58.gz 22.44MB Kongsberg multibeam vendor format
0099_20110222_170313_melville.all.mb58.gz 22.10MB Kongsberg multibeam vendor format
0100_20110222_173300_melville.all.mb58.gz 22.03MB Kongsberg multibeam vendor format
0101_20110222_180244_melville.all.mb58.gz 22.18MB Kongsberg multibeam vendor format
0102_20110222_183246_melville.all.mb58.gz 22.40MB Kongsberg multibeam vendor format
0103_20110222_190302_melville.all.mb58.gz 21.89MB Kongsberg multibeam vendor format
0104_20110222_193249_melville.all.mb58.gz 22.41MB Kongsberg multibeam vendor format
0105_20110222_200313_melville.all.mb58.gz 21.94MB Kongsberg multibeam vendor format
0106_20110222_203257_melville.all.mb58.gz 22.10MB Kongsberg multibeam vendor format
0107_20110222_210257_melville.all.mb58.gz 22.09MB Kongsberg multibeam vendor format
0108_20110222_213304_melville.all.mb58.gz 22.07MB Kongsberg multibeam vendor format
0109_20110222_220308_melville.all.mb58.gz 21.78MB Kongsberg multibeam vendor format
0110_20110222_223246_melville.all.mb58.gz 22.26MB Kongsberg multibeam vendor format
0111_20110222_230307_melville.all.mb58.gz 21.78MB Kongsberg multibeam vendor format
0112_20110222_233253_melville.all.mb58.gz 21.86MB Kongsberg multibeam vendor format
0113_20110223_000241_melville.all.mb58.gz 22.10MB Kongsberg multibeam vendor format
0114_20110223_003256_melville.all.mb58.gz 21.86MB Kongsberg multibeam vendor format
0115_20110223_010241_melville.all.mb58.gz 21.98MB Kongsberg multibeam vendor format
0116_20110223_013243_melville.all.mb58.gz 22.13MB Kongsberg multibeam vendor format
0117_20110223_020242_melville.all.mb58.gz 22.15MB Kongsberg multibeam vendor format
0118_20110223_023239_melville.all.mb58.gz 22.25MB Kongsberg multibeam vendor format
0119_20110223_030242_melville.all.mb58.gz 22.19MB Kongsberg multibeam vendor format
0120_20110223_033242_melville.all.mb58.gz 22.29MB Kongsberg multibeam vendor format
0121_20110223_040245_melville.all.mb58.gz 22.24MB Kongsberg multibeam vendor format
0122_20110223_043244_melville.all.mb58.gz 22.67MB Kongsberg multibeam vendor format
0123_20110223_050311_melville.all.mb58.gz 22.05MB Kongsberg multibeam vendor format
0124_20110223_053241_melville.all.mb58.gz 22.41MB Kongsberg multibeam vendor format
0125_20110223_060250_melville.all.mb58.gz 22.48MB Kongsberg multibeam vendor format
0126_20110223_063259_melville.all.mb58.gz 22.34MB Kongsberg multibeam vendor format
0127_20110223_070311_melville.all.mb58.gz 21.94MB Kongsberg multibeam vendor format
0128_20110223_073246_melville.all.mb58.gz 22.40MB Kongsberg multibeam vendor format
0129_20110223_080258_melville.all.mb58.gz 22.33MB Kongsberg multibeam vendor format
0130_20110223_083308_melville.all.mb58.gz 21.88MB Kongsberg multibeam vendor format
0131_20110223_090239_melville.all.mb58.gz 22.48MB Kongsberg multibeam vendor format
0132_20110223_093251_melville.all.mb58.gz 22.46MB Kongsberg multibeam vendor format
0133_20110223_100300_melville.all.mb58.gz 21.91MB Kongsberg multibeam vendor format
0134_20110223_103301_melville.all.mb58.gz 21.83MB Kongsberg multibeam vendor format
0135_20110223_110259_melville.all.mb58.gz 21.84MB Kongsberg multibeam vendor format
0136_20110223_113258_melville.all.mb58.gz 21.89MB Kongsberg multibeam vendor format
0137_20110223_120242_melville.all.mb58.gz 22.74MB Kongsberg multibeam vendor format
0138_20110223_123314_melville.all.mb58.gz 22.07MB Kongsberg multibeam vendor format
0139_20110223_130252_melville.all.mb58.gz 22.55MB Kongsberg multibeam vendor format
0140_20110223_133308_melville.all.mb58.gz 22.12MB Kongsberg multibeam vendor format
0141_20110223_140247_melville.all.mb58.gz 22.60MB Kongsberg multibeam vendor format
0142_20110223_143303_melville.all.mb58.gz 22.14MB Kongsberg multibeam vendor format
0143_20110223_150240_melville.all.mb58.gz 22.52MB Kongsberg multibeam vendor format
0144_20110223_153253_melville.all.mb58.gz 22.44MB Kongsberg multibeam vendor format
0145_20110223_160306_melville.all.mb58.gz 21.89MB Kongsberg multibeam vendor format
0146_20110223_163242_melville.all.mb58.gz 22.55MB Kongsberg multibeam vendor format
0147_20110223_170255_melville.all.mb58.gz 22.52MB Kongsberg multibeam vendor format
0148_20110223_173308_melville.all.mb58.gz 21.99MB Kongsberg multibeam vendor format
0149_20110223_180245_melville.all.mb58.gz 22.53MB Kongsberg multibeam vendor format
0150_20110223_183258_melville.all.mb58.gz 22.53MB Kongsberg multibeam vendor format
0151_20110223_190312_melville.all.mb58.gz 22.13MB Kongsberg multibeam vendor format
0152_20110223_193251_melville.all.mb58.gz 22.65MB Kongsberg multibeam vendor format
0153_20110223_200307_melville.all.mb58.gz 22.22MB Kongsberg multibeam vendor format
0154_20110223_203248_melville.all.mb58.gz 22.48MB Kongsberg multibeam vendor format
0155_20110223_210248_melville.all.mb58.gz 22.58MB Kongsberg multibeam vendor format
0156_20110223_213304_melville.all.mb58.gz 22.19MB Kongsberg multibeam vendor format
0157_20110223_220245_melville.all.mb58.gz 22.60MB Kongsberg multibeam vendor format
0158_20110223_223300_melville.all.mb58.gz 22.16MB Kongsberg multibeam vendor format
0159_20110223_230237_melville.all.mb58.gz 22.77MB Kongsberg multibeam vendor format
0160_20110223_233255_melville.all.mb58.gz 22.75MB Kongsberg multibeam vendor format
0161_20110224_000311_melville.all.mb58.gz 22.36MB Kongsberg multibeam vendor format
0162_20110224_003245_melville.all.mb58.gz 22.67MB Kongsberg multibeam vendor format
0163_20110224_010302_melville.all.mb58.gz 22.68MB Kongsberg multibeam vendor format
0164_20110224_013311_melville.all.mb58.gz 22.22MB Kongsberg multibeam vendor format
0165_20110224_020243_melville.all.mb58.gz 22.39MB Kongsberg multibeam vendor format
0166_20110224_023238_melville.all.mb58.gz 22.56MB Kongsberg multibeam vendor format
0167_20110224_030248_melville.all.mb58.gz 22.19MB Kongsberg multibeam vendor format
0168_20110224_033238_melville.all.mb58.gz 22.77MB Kongsberg multibeam vendor format
0169_20110224_040308_melville.all.mb58.gz 22.38MB Kongsberg multibeam vendor format
0170_20110224_043304_melville.all.mb58.gz 22.27MB Kongsberg multibeam vendor format
0171_20110224_050244_melville.all.mb58.gz 22.46MB Kongsberg multibeam vendor format
0172_20110224_053253_melville.all.mb58.gz 22.66MB Kongsberg multibeam vendor format
0173_20110224_060313_melville.all.mb58.gz 22.04MB Kongsberg multibeam vendor format
0174_20110224_063238_melville.all.mb58.gz 22.47MB Kongsberg multibeam vendor format
0175_20110224_070243_melville.all.mb58.gz 22.72MB Kongsberg multibeam vendor format
0176_20110224_073307_melville.all.mb58.gz 22.27MB Kongsberg multibeam vendor format
0177_20110224_080301_melville.all.mb58.gz 22.40MB Kongsberg multibeam vendor format
0178_20110224_083302_melville.all.mb58.gz 22.41MB Kongsberg multibeam vendor format
0179_20110224_090255_melville.all.mb58.gz 22.48MB Kongsberg multibeam vendor format
0180_20110224_093249_melville.all.mb58.gz 22.50MB Kongsberg multibeam vendor format
0181_20110224_100249_melville.all.mb58.gz 21.95MB Kongsberg multibeam vendor format
0182_20110224_103240_melville.all.mb58.gz 22.20MB Kongsberg multibeam vendor format
0183_20110224_110243_melville.all.mb58.gz 22.46MB Kongsberg multibeam vendor format
0184_20110224_113305_melville.all.mb58.gz 21.98MB Kongsberg multibeam vendor format
0185_20110224_120251_melville.all.mb58.gz 22.65MB Kongsberg multibeam vendor format
0186_20110224_123257_melville.all.mb58.gz 22.69MB Kongsberg multibeam vendor format
0187_20110224_130304_melville.all.mb58.gz 22.54MB Kongsberg multibeam vendor format
0188_20110224_133259_melville.all.mb58.gz 22.48MB Kongsberg multibeam vendor format
0189_20110224_140254_melville.all.mb58.gz 34.15MB Kongsberg multibeam vendor format
0190_20110224_143239_melville.all.mb58.gz 41.96MB Kongsberg multibeam vendor format
0191_20110224_150238_melville.all.mb58.gz 29.17MB Kongsberg multibeam vendor format
0192_20110224_153250_melville.all.mb58.gz 22.91MB Kongsberg multibeam vendor format
0193_20110224_160302_melville.all.mb58.gz 22.19MB Kongsberg multibeam vendor format
0194_20110224_163237_melville.all.mb58.gz 22.70MB Kongsberg multibeam vendor format
0195_20110224_170245_melville.all.mb58.gz 23.19MB Kongsberg multibeam vendor format
0196_20110224_173255_melville.all.mb58.gz 23.68MB Kongsberg multibeam vendor format
0197_20110224_180245_melville.all.mb58.gz 35.24MB Kongsberg multibeam vendor format
0198_20110224_183238_melville.all.mb58.gz 44.01MB Kongsberg multibeam vendor format
0199_20110224_190236_melville.all.mb58.gz 45.24MB Kongsberg multibeam vendor format
0200_20110224_193236_melville.all.mb58.gz 43.57MB Kongsberg multibeam vendor format
0201_20110224_200239_melville.all.mb58.gz 41.73MB Kongsberg multibeam vendor format
0202_20110224_203240_melville.all.mb58.gz 41.91MB Kongsberg multibeam vendor format
0203_20110224_210240_melville.all.mb58.gz 42.39MB Kongsberg multibeam vendor format
0204_20110224_213236_melville.all.mb58.gz 41.87MB Kongsberg multibeam vendor format
0205_20110224_220240_melville.all.mb58.gz 39.15MB Kongsberg multibeam vendor format
0206_20110224_223239_melville.all.mb58.gz 33.39MB Kongsberg multibeam vendor format
0207_20110224_230239_melville.all.mb58.gz 28.14MB Kongsberg multibeam vendor format
0208_20110224_233303_melville.all.mb58.gz 22.52MB Kongsberg multibeam vendor format
0209_20110225_000245_melville.all.mb58.gz 23.24MB Kongsberg multibeam vendor format
0210_20110225_003302_melville.all.mb58.gz 31.83MB Kongsberg multibeam vendor format
0211_20110225_010240_melville.all.mb58.gz 40.83MB Kongsberg multibeam vendor format
0212_20110225_013238_melville.all.mb58.gz 36.76MB Kongsberg multibeam vendor format
0213_20110225_020236_melville.all.mb58.gz 41.20MB Kongsberg multibeam vendor format
0214_20110225_023239_melville.all.mb58.gz 40.31MB Kongsberg multibeam vendor format
0215_20110225_030237_melville.all.mb58.gz 40.93MB Kongsberg multibeam vendor format
0216_20110225_033240_melville.all.mb58.gz 27.33MB Kongsberg multibeam vendor format
0217_20110225_040254_melville.all.mb58.gz 22.50MB Kongsberg multibeam vendor format
0218_20110225_043306_melville.all.mb58.gz 22.67MB Kongsberg multibeam vendor format
0219_20110225_050236_melville.all.mb58.gz 31.71MB Kongsberg multibeam vendor format
0220_20110225_053236_melville.all.mb58.gz 42.85MB Kongsberg multibeam vendor format
0221_20110225_060239_melville.all.mb58.gz 37.50MB Kongsberg multibeam vendor format
0222_20110225_063245_melville.all.mb58.gz 22.83MB Kongsberg multibeam vendor format
0223_20110225_070241_melville.all.mb58.gz 22.15MB Kongsberg multibeam vendor format
0224_20110225_073253_melville.all.mb58.gz 23.01MB Kongsberg multibeam vendor format
0225_20110225_080246_melville.all.mb58.gz 22.63MB Kongsberg multibeam vendor format
0226_20110225_083256_melville.all.mb58.gz 22.58MB Kongsberg multibeam vendor format
0227_20110225_090309_melville.all.mb58.gz 22.38MB Kongsberg multibeam vendor format
0228_20110225_093241_melville.all.mb58.gz 22.81MB Kongsberg multibeam vendor format
0229_20110225_100241_melville.all.mb58.gz 22.00MB Kongsberg multibeam vendor format
0230_20110225_103240_melville.all.mb58.gz 22.39MB Kongsberg multibeam vendor format
0231_20110225_110259_melville.all.mb58.gz 22.70MB Kongsberg multibeam vendor format
0232_20110225_113300_melville.all.mb58.gz 22.21MB Kongsberg multibeam vendor format
0233_20110225_120240_melville.all.mb58.gz 22.90MB Kongsberg multibeam vendor format
0234_20110225_123310_melville.all.mb58.gz 22.17MB Kongsberg multibeam vendor format
0235_20110225_130240_melville.all.mb58.gz 22.55MB Kongsberg multibeam vendor format
0236_20110225_133254_melville.all.mb58.gz 22.82MB Kongsberg multibeam vendor format
0237_20110225_140308_melville.all.mb58.gz 22.52MB Kongsberg multibeam vendor format
0238_20110225_143303_melville.all.mb58.gz 22.01MB Kongsberg multibeam vendor format
0239_20110225_150236_melville.all.mb58.gz 22.26MB Kongsberg multibeam vendor format
0240_20110225_153237_melville.all.mb58.gz 25.18MB Kongsberg multibeam vendor format
0241_20110225_160243_melville.all.mb58.gz 40.87MB Kongsberg multibeam vendor format
0242_20110225_163239_melville.all.mb58.gz 41.01MB Kongsberg multibeam vendor format
0243_20110225_170242_melville.all.mb58.gz 25.90MB Kongsberg multibeam vendor format
0244_20110225_173243_melville.all.mb58.gz 22.40MB Kongsberg multibeam vendor format
0245_20110225_180254_melville.all.mb58.gz 22.09MB Kongsberg multibeam vendor format
0246_20110225_183244_melville.all.mb58.gz 22.55MB Kongsberg multibeam vendor format
0247_20110225_190259_melville.all.mb58.gz 21.98MB Kongsberg multibeam vendor format
0248_20110225_193258_melville.all.mb58.gz 22.50MB Kongsberg multibeam vendor format
0249_20110225_200245_melville.all.mb58.gz 22.69MB Kongsberg multibeam vendor format
0250_20110225_203300_melville.all.mb58.gz 26.59MB Kongsberg multibeam vendor format
0251_20110225_210236_melville.all.mb58.gz 34.81MB Kongsberg multibeam vendor format
0252_20110225_213248_melville.all.mb58.gz 24.29MB Kongsberg multibeam vendor format
0253_20110225_220239_melville.all.mb58.gz 23.38MB Kongsberg multibeam vendor format
0254_20110225_223258_melville.all.mb58.gz 22.69MB Kongsberg multibeam vendor format
0255_20110225_230257_melville.all.mb58.gz 22.81MB Kongsberg multibeam vendor format
0256_20110225_233245_melville.all.mb58.gz 22.55MB Kongsberg multibeam vendor format
0257_20110226_000250_melville.all.mb58.gz 22.94MB Kongsberg multibeam vendor format
0258_20110226_003256_melville.all.mb58.gz 23.20MB Kongsberg multibeam vendor format
0259_20110226_010256_melville.all.mb58.gz 23.01MB Kongsberg multibeam vendor format
0260_20110226_013300_melville.all.mb58.gz 22.62MB Kongsberg multibeam vendor format
0261_20110226_020258_melville.all.mb58.gz 22.65MB Kongsberg multibeam vendor format
0262_20110226_023236_melville.all.mb58.gz 23.13MB Kongsberg multibeam vendor format
0263_20110226_030256_melville.all.mb58.gz 22.52MB Kongsberg multibeam vendor format
0264_20110226_033242_melville.all.mb58.gz 22.73MB Kongsberg multibeam vendor format
0265_20110226_040250_melville.all.mb58.gz 22.67MB Kongsberg multibeam vendor format
0266_20110226_043238_melville.all.mb58.gz 23.01MB Kongsberg multibeam vendor format
0267_20110226_050242_melville.all.mb58.gz 22.71MB Kongsberg multibeam vendor format
0268_20110226_053248_melville.all.mb58.gz 22.98MB Kongsberg multibeam vendor format
0269_20110226_060258_melville.all.mb58.gz 22.85MB Kongsberg multibeam vendor format
0270_20110226_063305_melville.all.mb58.gz 22.54MB Kongsberg multibeam vendor format
0271_20110226_070248_melville.all.mb58.gz 22.89MB Kongsberg multibeam vendor format
0272_20110226_073252_melville.all.mb58.gz 22.81MB Kongsberg multibeam vendor format
0273_20110226_080242_melville.all.mb58.gz 23.07MB Kongsberg multibeam vendor format
0274_20110226_083255_melville.all.mb58.gz 23.02MB Kongsberg multibeam vendor format
0275_20110226_090301_melville.all.mb58.gz 22.90MB Kongsberg multibeam vendor format
0276_20110226_093239_melville.all.mb58.gz 23.26MB Kongsberg multibeam vendor format
0277_20110226_100256_melville.all.mb58.gz 22.85MB Kongsberg multibeam vendor format
0278_20110226_103242_melville.all.mb58.gz 22.49MB Kongsberg multibeam vendor format
0279_20110226_110237_melville.all.mb58.gz 23.16MB Kongsberg multibeam vendor format
0280_20110226_113245_melville.all.mb58.gz 22.90MB Kongsberg multibeam vendor format
0281_20110226_120244_melville.all.mb58.gz 23.17MB Kongsberg multibeam vendor format
0282_20110226_123248_melville.all.mb58.gz 22.72MB Kongsberg multibeam vendor format
0283_20110226_130249_melville.all.mb58.gz 22.68MB Kongsberg multibeam vendor format
0284_20110226_133257_melville.all.mb58.gz 22.35MB Kongsberg multibeam vendor format
0285_20110226_140239_melville.all.mb58.gz 23.06MB Kongsberg multibeam vendor format
0286_20110226_143304_melville.all.mb58.gz 22.42MB Kongsberg multibeam vendor format
0287_20110226_150237_melville.all.mb58.gz 23.18MB Kongsberg multibeam vendor format
0288_20110226_153300_melville.all.mb58.gz 22.40MB Kongsberg multibeam vendor format
0289_20110226_160258_melville.all.mb58.gz 22.26MB Kongsberg multibeam vendor format
0290_20110226_163235_melville.all.mb58.gz 22.78MB Kongsberg multibeam vendor format
0291_20110226_170236_melville.all.mb58.gz 22.79MB Kongsberg multibeam vendor format
0292_20110226_173245_melville.all.mb58.gz 22.77MB Kongsberg multibeam vendor format
0293_20110226_180238_melville.all.mb58.gz 22.75MB Kongsberg multibeam vendor format
0294_20110226_183246_melville.all.mb58.gz 22.82MB Kongsberg multibeam vendor format
0295_20110226_190251_melville.all.mb58.gz 22.55MB Kongsberg multibeam vendor format
0296_20110226_193254_melville.all.mb58.gz 23.05MB Kongsberg multibeam vendor format
0297_20110226_200256_melville.all.mb58.gz 22.48MB Kongsberg multibeam vendor format
0298_20110226_203247_melville.all.mb58.gz 22.82MB Kongsberg multibeam vendor format
0299_20110226_210238_melville.all.mb58.gz 23.17MB Kongsberg multibeam vendor format
0300_20110226_213238_melville.all.mb58.gz 23.04MB Kongsberg multibeam vendor format
0301_20110226_220235_melville.all.mb58.gz 23.20MB Kongsberg multibeam vendor format
0302_20110226_223244_melville.all.mb58.gz 23.01MB Kongsberg multibeam vendor format
0303_20110226_230238_melville.all.mb58.gz 22.96MB Kongsberg multibeam vendor format
0304_20110226_233253_melville.all.mb58.gz 22.89MB Kongsberg multibeam vendor format
0305_20110227_000248_melville.all.mb58.gz 22.76MB Kongsberg multibeam vendor format
0306_20110227_003245_melville.all.mb58.gz 22.91MB Kongsberg multibeam vendor format
0307_20110227_010254_melville.all.mb58.gz 22.61MB Kongsberg multibeam vendor format
0308_20110227_013234_melville.all.mb58.gz 22.91MB Kongsberg multibeam vendor format
0309_20110227_020242_melville.all.mb58.gz 22.45MB Kongsberg multibeam vendor format
0310_20110227_023257_melville.all.mb58.gz 22.31MB Kongsberg multibeam vendor format
0311_20110227_030234_melville.all.mb58.gz 23.13MB Kongsberg multibeam vendor format
0312_20110227_033234_melville.all.mb58.gz 23.90MB Kongsberg multibeam vendor format
0313_20110227_040254_melville.all.mb58.gz 24.14MB Kongsberg multibeam vendor format
0314_20110227_043251_melville.all.mb58.gz 23.87MB Kongsberg multibeam vendor format
0315_20110227_050243_melville.all.mb58.gz 24.71MB Kongsberg multibeam vendor format
0316_20110227_053250_melville.all.mb58.gz 24.37MB Kongsberg multibeam vendor format
0317_20110227_060247_melville.all.mb58.gz 24.28MB Kongsberg multibeam vendor format
0318_20110227_063243_melville.all.mb58.gz 24.22MB Kongsberg multibeam vendor format
0319_20110227_070247_melville.all.mb58.gz 22.86MB Kongsberg multibeam vendor format
0320_20110227_073241_melville.all.mb58.gz 23.22MB Kongsberg multibeam vendor format
0321_20110227_080255_melville.all.mb58.gz 23.69MB Kongsberg multibeam vendor format
0322_20110227_083249_melville.all.mb58.gz 23.73MB Kongsberg multibeam vendor format
0323_20110227_090250_melville.all.mb58.gz 24.47MB Kongsberg multibeam vendor format
0324_20110227_093236_melville.all.mb58.gz 25.10MB Kongsberg multibeam vendor format
0325_20110227_100234_melville.all.mb58.gz 24.14MB Kongsberg multibeam vendor format
0326_20110227_103253_melville.all.mb58.gz 23.10MB Kongsberg multibeam vendor format
0327_20110227_110258_melville.all.mb58.gz 22.20MB Kongsberg multibeam vendor format
0328_20110227_113244_melville.all.mb58.gz 22.76MB Kongsberg multibeam vendor format
0329_20110227_120256_melville.all.mb58.gz 22.66MB Kongsberg multibeam vendor format
0330_20110227_123250_melville.all.mb58.gz 22.56MB Kongsberg multibeam vendor format
0331_20110227_130247_melville.all.mb58.gz 22.72MB Kongsberg multibeam vendor format
0332_20110227_133235_melville.all.mb58.gz 6.87MB Kongsberg multibeam vendor format
0332_20110227_141759_melville.all.mb58.gz 23.91MB Kongsberg multibeam vendor format
0333_20110227_144825_melville.all.mb58.gz 23.78MB Kongsberg multibeam vendor format
0334_20110227_151830_melville.all.mb58.gz 22.04MB Kongsberg multibeam vendor format
0335_20110227_154805_melville.all.mb58.gz 23.11MB Kongsberg multibeam vendor format
0336_20110227_161808_melville.all.mb58.gz 23.20MB Kongsberg multibeam vendor format
0337_20110227_164802_melville.all.mb58.gz 23.32MB Kongsberg multibeam vendor format
0338_20110227_171822_melville.all.mb58.gz 22.02MB Kongsberg multibeam vendor format
0339_20110227_174815_melville.all.mb58.gz 23.06MB Kongsberg multibeam vendor format
0340_20110227_181804_melville.all.mb58.gz 22.97MB Kongsberg multibeam vendor format
0341_20110227_184821_melville.all.mb58.gz 22.71MB Kongsberg multibeam vendor format
0342_20110227_191801_melville.all.mb58.gz 23.00MB Kongsberg multibeam vendor format
0343_20110227_194805_melville.all.mb58.gz 23.46MB Kongsberg multibeam vendor format
0344_20110227_201820_melville.all.mb58.gz 22.90MB Kongsberg multibeam vendor format
0345_20110227_204822_melville.all.mb58.gz 23.13MB Kongsberg multibeam vendor format
0346_20110227_211818_melville.all.mb58.gz 22.69MB Kongsberg multibeam vendor format
0347_20110227_214809_melville.all.mb58.gz 22.72MB Kongsberg multibeam vendor format
0348_20110227_221815_melville.all.mb58.gz 22.18MB Kongsberg multibeam vendor format
0349_20110227_224830_melville.all.mb58.gz 21.56MB Kongsberg multibeam vendor format
0350_20110227_231802_melville.all.mb58.gz 21.91MB Kongsberg multibeam vendor format
0351_20110227_234801_melville.all.mb58.gz 22.24MB Kongsberg multibeam vendor format
0352_20110228_001822_melville.all.mb58.gz 22.10MB Kongsberg multibeam vendor format
0353_20110228_004808_melville.all.mb58.gz 22.38MB Kongsberg multibeam vendor format
0354_20110228_011833_melville.all.mb58.gz 21.90MB Kongsberg multibeam vendor format
0355_20110228_014803_melville.all.mb58.gz 23.20MB Kongsberg multibeam vendor format
0356_20110228_021814_melville.all.mb58.gz 22.71MB Kongsberg multibeam vendor format
0357_20110228_024808_melville.all.mb58.gz 23.12MB Kongsberg multibeam vendor format
0358_20110228_031821_melville.all.mb58.gz 22.59MB Kongsberg multibeam vendor format
0359_20110228_034823_melville.all.mb58.gz 22.12MB Kongsberg multibeam vendor format
0360_20110228_041805_melville.all.mb58.gz 23.19MB Kongsberg multibeam vendor format
0361_20110228_044825_melville.all.mb58.gz 22.07MB Kongsberg multibeam vendor format
0362_20110228_051801_melville.all.mb58.gz 22.16MB Kongsberg multibeam vendor format
0363_20110228_054811_melville.all.mb58.gz 22.30MB Kongsberg multibeam vendor format
0364_20110228_061827_melville.all.mb58.gz 22.17MB Kongsberg multibeam vendor format
0365_20110228_064820_melville.all.mb58.gz 22.06MB Kongsberg multibeam vendor format
0366_20110228_071831_melville.all.mb58.gz 21.60MB Kongsberg multibeam vendor format
0367_20110228_074804_melville.all.mb58.gz 22.06MB Kongsberg multibeam vendor format
0368_20110228_081815_melville.all.mb58.gz 21.96MB Kongsberg multibeam vendor format
0369_20110228_084826_melville.all.mb58.gz 21.73MB Kongsberg multibeam vendor format
0370_20110228_091820_melville.all.mb58.gz 22.07MB Kongsberg multibeam vendor format
0371_20110228_094830_melville.all.mb58.gz 21.85MB Kongsberg multibeam vendor format
0372_20110228_101822_melville.all.mb58.gz 21.70MB Kongsberg multibeam vendor format
0373_20110228_104814_melville.all.mb58.gz 22.01MB Kongsberg multibeam vendor format
0374_20110228_111827_melville.all.mb58.gz 21.65MB Kongsberg multibeam vendor format
0375_20110228_114801_melville.all.mb58.gz 22.04MB Kongsberg multibeam vendor format
0376_20110228_121801_melville.all.mb58.gz 22.08MB Kongsberg multibeam vendor format
0377_20110228_124810_melville.all.mb58.gz 22.21MB Kongsberg multibeam vendor format
0378_20110228_131830_melville.all.mb58.gz 21.75MB Kongsberg multibeam vendor format
0379_20110228_134806_melville.all.mb58.gz 22.08MB Kongsberg multibeam vendor format
0380_20110228_141829_melville.all.mb58.gz 22.08MB Kongsberg multibeam vendor format
0381_20110228_144830_melville.all.mb58.gz 22.18MB Kongsberg multibeam vendor format
0382_20110228_151827_melville.all.mb58.gz 22.02MB Kongsberg multibeam vendor format
0383_20110228_154819_melville.all.mb58.gz 22.06MB Kongsberg multibeam vendor format
0384_20110228_161802_melville.all.mb58.gz 22.59MB Kongsberg multibeam vendor format
0385_20110228_164831_melville.all.mb58.gz 22.04MB Kongsberg multibeam vendor format
0386_20110228_171807_melville.all.mb58.gz 22.60MB Kongsberg multibeam vendor format
0387_20110228_174821_melville.all.mb58.gz 21.98MB Kongsberg multibeam vendor format
0388_20110228_181759_melville.all.mb58.gz 22.47MB Kongsberg multibeam vendor format
0389_20110228_184831_melville.all.mb58.gz 22.14MB Kongsberg multibeam vendor format
0390_20110228_191837_melville.all.mb58.gz 22.05MB Kongsberg multibeam vendor format
0391_20110228_194811_melville.all.mb58.gz 22.51MB Kongsberg multibeam vendor format
0392_20110228_201834_melville.all.mb58.gz 22.21MB Kongsberg multibeam vendor format
0393_20110228_204823_melville.all.mb58.gz 22.18MB Kongsberg multibeam vendor format
0394_20110228_211807_melville.all.mb58.gz 22.35MB Kongsberg multibeam vendor format
0395_20110228_214818_melville.all.mb58.gz 22.30MB Kongsberg multibeam vendor format
0396_20110228_221832_melville.all.mb58.gz 22.37MB Kongsberg multibeam vendor format
0397_20110228_224836_melville.all.mb58.gz 22.19MB Kongsberg multibeam vendor format
0398_20110228_231827_melville.all.mb58.gz 22.02MB Kongsberg multibeam vendor format
0399_20110228_234805_melville.all.mb58.gz 22.30MB Kongsberg multibeam vendor format
0400_20110301_001808_melville.all.mb58.gz 22.57MB Kongsberg multibeam vendor format
0401_20110301_004836_melville.all.mb58.gz 22.08MB Kongsberg multibeam vendor format
0402_20110301_011822_melville.all.mb58.gz 22.28MB Kongsberg multibeam vendor format
0403_20110301_014824_melville.all.mb58.gz 22.00MB Kongsberg multibeam vendor format
0404_20110301_021802_melville.all.mb58.gz 22.48MB Kongsberg multibeam vendor format
0405_20110301_024815_melville.all.mb58.gz 22.46MB Kongsberg multibeam vendor format
0406_20110301_031829_melville.all.mb58.gz 22.27MB Kongsberg multibeam vendor format
0407_20110301_034829_melville.all.mb58.gz 22.20MB Kongsberg multibeam vendor format
0408_20110301_041824_melville.all.mb58.gz 21.96MB Kongsberg multibeam vendor format
0409_20110301_044803_melville.all.mb58.gz 22.61MB Kongsberg multibeam vendor format
0410_20110301_051830_melville.all.mb58.gz 22.22MB Kongsberg multibeam vendor format
0411_20110301_054831_melville.all.mb58.gz 21.84MB Kongsberg multibeam vendor format
0412_20110301_061759_melville.all.mb58.gz 22.64MB Kongsberg multibeam vendor format
0413_20110301_064834_melville.all.mb58.gz 22.23MB Kongsberg multibeam vendor format
0414_20110301_071833_melville.all.mb58.gz 21.89MB Kongsberg multibeam vendor format
0415_20110301_074804_melville.all.mb58.gz 22.32MB Kongsberg multibeam vendor format
0416_20110301_081817_melville.all.mb58.gz 22.34MB Kongsberg multibeam vendor format
0417_20110301_084829_melville.all.mb58.gz 21.88MB Kongsberg multibeam vendor format
0418_20110301_091802_melville.all.mb58.gz 22.34MB Kongsberg multibeam vendor format
0419_20110301_094810_melville.all.mb58.gz 22.21MB Kongsberg multibeam vendor format
0420_20110301_101816_melville.all.mb58.gz 22.17MB Kongsberg multibeam vendor format
0421_20110301_104822_melville.all.mb58.gz 22.01MB Kongsberg multibeam vendor format
0422_20110301_111808_melville.all.mb58.gz 22.08MB Kongsberg multibeam vendor format
0423_20110301_114759_melville.all.mb58.gz 22.13MB Kongsberg multibeam vendor format
0424_20110301_121811_melville.all.mb58.gz 21.97MB Kongsberg multibeam vendor format
0425_20110301_124823_melville.all.mb58.gz 21.95MB Kongsberg multibeam vendor format
0426_20110301_131825_melville.all.mb58.gz 21.44MB Kongsberg multibeam vendor format
0427_20110301_134800_melville.all.mb58.gz 21.94MB Kongsberg multibeam vendor format
0428_20110301_141808_melville.all.mb58.gz 22.36MB Kongsberg multibeam vendor format
0429_20110301_144821_melville.all.mb58.gz 21.88MB Kongsberg multibeam vendor format
0430_20110301_151758_melville.all.mb58.gz 22.26MB Kongsberg multibeam vendor format
0431_20110301_154812_melville.all.mb58.gz 22.14MB Kongsberg multibeam vendor format
0432_20110301_161824_melville.all.mb58.gz 22.11MB Kongsberg multibeam vendor format
0433_20110301_164832_melville.all.mb58.gz 21.10MB Kongsberg multibeam vendor format
0434_20110301_171759_melville.all.mb58.gz 21.44MB Kongsberg multibeam vendor format
0435_20110301_174803_melville.all.mb58.gz 21.63MB Kongsberg multibeam vendor format
0436_20110301_181807_melville.all.mb58.gz 21.72MB Kongsberg multibeam vendor format
0437_20110301_184812_melville.all.mb58.gz 21.83MB Kongsberg multibeam vendor format
0438_20110301_191817_melville.all.mb58.gz 21.96MB Kongsberg multibeam vendor format
0439_20110301_194831_melville.all.mb58.gz 21.51MB Kongsberg multibeam vendor format
0440_20110301_201758_melville.all.mb58.gz 22.05MB Kongsberg multibeam vendor format
0441_20110301_204804_melville.all.mb58.gz 22.03MB Kongsberg multibeam vendor format
0442_20110301_211810_melville.all.mb58.gz 22.17MB Kongsberg multibeam vendor format
0443_20110301_214815_melville.all.mb58.gz 22.14MB Kongsberg multibeam vendor format
0444_20110301_221820_melville.all.mb58.gz 22.10MB Kongsberg multibeam vendor format
0445_20110301_224825_melville.all.mb58.gz 22.25MB Kongsberg multibeam vendor format
0446_20110301_231831_melville.all.mb58.gz 21.71MB Kongsberg multibeam vendor format
0447_20110301_234800_melville.all.mb58.gz 22.24MB Kongsberg multibeam vendor format
0448_20110302_001806_melville.all.mb58.gz 22.08MB Kongsberg multibeam vendor format
0449_20110302_004811_melville.all.mb58.gz 22.05MB Kongsberg multibeam vendor format
0450_20110302_011811_melville.all.mb58.gz 22.13MB Kongsberg multibeam vendor format
0451_20110302_014816_melville.all.mb58.gz 22.15MB Kongsberg multibeam vendor format
0452_20110302_021821_melville.all.mb58.gz 22.28MB Kongsberg multibeam vendor format
0453_20110302_024825_melville.all.mb58.gz 21.67MB Kongsberg multibeam vendor format
0454_20110302_031801_melville.all.mb58.gz 22.17MB Kongsberg multibeam vendor format
0455_20110302_034804_melville.all.mb58.gz 22.34MB Kongsberg multibeam vendor format
0456_20110302_041811_melville.all.mb58.gz 22.23MB Kongsberg multibeam vendor format
0457_20110302_044807_melville.all.mb58.gz 22.33MB Kongsberg multibeam vendor format
0458_20110302_051814_melville.all.mb58.gz 22.17MB Kongsberg multibeam vendor format
0459_20110302_054821_melville.all.mb58.gz 22.19MB Kongsberg multibeam vendor format
0460_20110302_061827_melville.all.mb58.gz 22.18MB Kongsberg multibeam vendor format
0461_20110302_064832_melville.all.mb58.gz 21.68MB Kongsberg multibeam vendor format
0462_20110302_071800_melville.all.mb58.gz 22.13MB Kongsberg multibeam vendor format
0463_20110302_074809_melville.all.mb58.gz 22.09MB Kongsberg multibeam vendor format
0464_20110302_081818_melville.all.mb58.gz 22.07MB Kongsberg multibeam vendor format
0465_20110302_084828_melville.all.mb58.gz 21.65MB Kongsberg multibeam vendor format
0466_20110302_091800_melville.all.mb58.gz 22.07MB Kongsberg multibeam vendor format
0467_20110302_094809_melville.all.mb58.gz 22.04MB Kongsberg multibeam vendor format
0468_20110302_101818_melville.all.mb58.gz 22.07MB Kongsberg multibeam vendor format
0469_20110302_104830_melville.all.mb58.gz 21.57MB Kongsberg multibeam vendor format
0470_20110302_111803_melville.all.mb58.gz 21.99MB Kongsberg multibeam vendor format
0471_20110302_114813_melville.all.mb58.gz 21.45MB Kongsberg multibeam vendor format
0472_20110302_121802_melville.all.mb58.gz 21.58MB Kongsberg multibeam vendor format
0473_20110302_124803_melville.all.mb58.gz 21.71MB Kongsberg multibeam vendor format
0474_20110302_131818_melville.all.mb58.gz 21.63MB Kongsberg multibeam vendor format
0475_20110302_134826_melville.all.mb58.gz 21.65MB Kongsberg multibeam vendor format
0476_20110302_141815_melville.all.mb58.gz 21.94MB Kongsberg multibeam vendor format
0477_20110302_144822_melville.all.mb58.gz 22.04MB Kongsberg multibeam vendor format
0478_20110302_151830_melville.all.mb58.gz 21.63MB Kongsberg multibeam vendor format
0479_20110302_154800_melville.all.mb58.gz 22.05MB Kongsberg multibeam vendor format
0480_20110302_161808_melville.all.mb58.gz 22.09MB Kongsberg multibeam vendor format
0481_20110302_164817_melville.all.mb58.gz 22.19MB Kongsberg multibeam vendor format
0482_20110302_171827_melville.all.mb58.gz 21.74MB Kongsberg multibeam vendor format
0483_20110302_174800_melville.all.mb58.gz 22.23MB Kongsberg multibeam vendor format
0484_20110302_181809_melville.all.mb58.gz 22.16MB Kongsberg multibeam vendor format
0485_20110302_184819_melville.all.mb58.gz 22.11MB Kongsberg multibeam vendor format
0486_20110302_191829_melville.all.mb58.gz 21.62MB Kongsberg multibeam vendor format
0487_20110302_194801_melville.all.mb58.gz 22.09MB Kongsberg multibeam vendor format
0488_20110302_201800_melville.all.mb58.gz 22.18MB Kongsberg multibeam vendor format
0489_20110302_204804_melville.all.mb58.gz 22.26MB Kongsberg multibeam vendor format
0490_20110302_211819_melville.all.mb58.gz 22.02MB Kongsberg multibeam vendor format
0491_20110302_214805_melville.all.mb58.gz 22.23MB Kongsberg multibeam vendor format
0492_20110302_221817_melville.all.mb58.gz 22.26MB Kongsberg multibeam vendor format
0493_20110302_224831_melville.all.mb58.gz 21.97MB Kongsberg multibeam vendor format
0494_20110302_231806_melville.all.mb58.gz 22.36MB Kongsberg multibeam vendor format
0495_20110302_234819_melville.all.mb58.gz 22.36MB Kongsberg multibeam vendor format
0496_20110303_001832_melville.all.mb58.gz 21.87MB Kongsberg multibeam vendor format
0497_20110303_004807_melville.all.mb58.gz 22.33MB Kongsberg multibeam vendor format
0498_20110303_011821_melville.all.mb58.gz 21.80MB Kongsberg multibeam vendor format
0499_20110303_014758_melville.all.mb58.gz 22.21MB Kongsberg multibeam vendor format
0500_20110303_021811_melville.all.mb58.gz 22.21MB Kongsberg multibeam vendor format
0501_20110303_024825_melville.all.mb58.gz 21.77MB Kongsberg multibeam vendor format
0502_20110303_031804_melville.all.mb58.gz 22.16MB Kongsberg multibeam vendor format
0503_20110303_034820_melville.all.mb58.gz 21.63MB Kongsberg multibeam vendor format
0504_20110303_041757_melville.all.mb58.gz 21.95MB Kongsberg multibeam vendor format
0505_20110303_044810_melville.all.mb58.gz 22.02MB Kongsberg multibeam vendor format
0506_20110303_051825_melville.all.mb58.gz 21.43MB Kongsberg multibeam vendor format
0507_20110303_054800_melville.all.mb58.gz 21.90MB Kongsberg multibeam vendor format
0508_20110303_061809_melville.all.mb58.gz 21.88MB Kongsberg multibeam vendor format
0509_20110303_064817_melville.all.mb58.gz 21.87MB Kongsberg multibeam vendor format
0510_20110303_071822_melville.all.mb58.gz 21.89MB Kongsberg multibeam vendor format
0511_20110303_074828_melville.all.mb58.gz 21.82MB Kongsberg multibeam vendor format
0512_20110303_081833_melville.all.mb58.gz 21.40MB Kongsberg multibeam vendor format
0513_20110303_084801_melville.all.mb58.gz 21.88MB Kongsberg multibeam vendor format
0514_20110303_091805_melville.all.mb58.gz 21.83MB Kongsberg multibeam vendor format
0515_20110303_094810_melville.all.mb58.gz 21.81MB Kongsberg multibeam vendor format
0516_20110303_101817_melville.all.mb58.gz 21.88MB Kongsberg multibeam vendor format
0517_20110303_104826_melville.all.mb58.gz 21.46MB Kongsberg multibeam vendor format
0518_20110303_111759_melville.all.mb58.gz 21.94MB Kongsberg multibeam vendor format
0519_20110303_114810_melville.all.mb58.gz 21.77MB Kongsberg multibeam vendor format
0520_20110303_121823_melville.all.mb58.gz 21.17MB Kongsberg multibeam vendor format
0521_20110303_124759_melville.all.mb58.gz 21.57MB Kongsberg multibeam vendor format
0522_20110303_131813_melville.all.mb58.gz 21.63MB Kongsberg multibeam vendor format
0523_20110303_134827_melville.all.mb58.gz 21.27MB Kongsberg multibeam vendor format
0524_20110303_141803_melville.all.mb58.gz 21.83MB Kongsberg multibeam vendor format
0525_20110303_144816_melville.all.mb58.gz 21.86MB Kongsberg multibeam vendor format
0526_20110303_151833_melville.all.mb58.gz 21.42MB Kongsberg multibeam vendor format
0527_20110303_154813_melville.all.mb58.gz 21.97MB Kongsberg multibeam vendor format
0528_20110303_161829_melville.all.mb58.gz 21.66MB Kongsberg multibeam vendor format
0529_20110303_164812_melville.all.mb58.gz 22.27MB Kongsberg multibeam vendor format
0530_20110303_171833_melville.all.mb58.gz 21.79MB Kongsberg multibeam vendor format
0531_20110303_174816_melville.all.mb58.gz 21.78MB Kongsberg multibeam vendor format
0532_20110303_181800_melville.all.mb58.gz 22.45MB Kongsberg multibeam vendor format
0533_20110303_184822_melville.all.mb58.gz 22.02MB Kongsberg multibeam vendor format
0534_20110303_191806_melville.all.mb58.gz 22.46MB Kongsberg multibeam vendor format
0535_20110303_194829_melville.all.mb58.gz 21.89MB Kongsberg multibeam vendor format
0536_20110303_201812_melville.all.mb58.gz 22.29MB Kongsberg multibeam vendor format
0537_20110303_204826_melville.all.mb58.gz 21.74MB Kongsberg multibeam vendor format
0538_20110303_211803_melville.all.mb58.gz 22.29MB Kongsberg multibeam vendor format
0539_20110303_214816_melville.all.mb58.gz 22.32MB Kongsberg multibeam vendor format
0540_20110303_221829_melville.all.mb58.gz 21.86MB Kongsberg multibeam vendor format
0541_20110303_224803_melville.all.mb58.gz 22.36MB Kongsberg multibeam vendor format
0542_20110303_231813_melville.all.mb58.gz 22.39MB Kongsberg multibeam vendor format
0543_20110303_234820_melville.all.mb58.gz 22.22MB Kongsberg multibeam vendor format
0544_20110304_001824_melville.all.mb58.gz 22.01MB Kongsberg multibeam vendor format
0545_20110304_004800_melville.all.mb58.gz 22.19MB Kongsberg multibeam vendor format
0546_20110304_011757_melville.all.mb58.gz 22.68MB Kongsberg multibeam vendor format
0547_20110304_014807_melville.all.mb58.gz 22.49MB Kongsberg multibeam vendor format
0548_20110304_021816_melville.all.mb58.gz 22.39MB Kongsberg multibeam vendor format
0549_20110304_024825_melville.all.mb58.gz 22.40MB Kongsberg multibeam vendor format
0550_20110304_031814_melville.all.mb58.gz 22.47MB Kongsberg multibeam vendor format
0551_20110304_034818_melville.all.mb58.gz 22.64MB Kongsberg multibeam vendor format
0552_20110304_041827_melville.all.mb58.gz 22.01MB Kongsberg multibeam vendor format
0553_20110304_044759_melville.all.mb58.gz 22.55MB Kongsberg multibeam vendor format
0554_20110304_051806_melville.all.mb58.gz 22.59MB Kongsberg multibeam vendor format
0555_20110304_054815_melville.all.mb58.gz 22.53MB Kongsberg multibeam vendor format
0556_20110304_061825_melville.all.mb58.gz 22.18MB Kongsberg multibeam vendor format
0557_20110304_064758_melville.all.mb58.gz 22.73MB Kongsberg multibeam vendor format
0558_20110304_071809_melville.all.mb58.gz 22.60MB Kongsberg multibeam vendor format
0559_20110304_074818_melville.all.mb58.gz 22.58MB Kongsberg multibeam vendor format
0560_20110304_081825_melville.all.mb58.gz 22.62MB Kongsberg multibeam vendor format
0561_20110304_084826_melville.all.mb58.gz 22.49MB Kongsberg multibeam vendor format
0562_20110304_091831_melville.all.mb58.gz 21.94MB Kongsberg multibeam vendor format
0563_20110304_094758_melville.all.mb58.gz 22.35MB Kongsberg multibeam vendor format
0564_20110304_101806_melville.all.mb58.gz 22.40MB Kongsberg multibeam vendor format
0565_20110304_104810_melville.all.mb58.gz 22.36MB Kongsberg multibeam vendor format
0566_20110304_111816_melville.all.mb58.gz 22.32MB Kongsberg multibeam vendor format
0567_20110304_114820_melville.all.mb58.gz 22.18MB Kongsberg multibeam vendor format
0568_20110304_121823_melville.all.mb58.gz 22.21MB Kongsberg multibeam vendor format
0569_20110304_124826_melville.all.mb58.gz 21.83MB Kongsberg multibeam vendor format
0570_20110304_131819_melville.all.mb58.gz 21.65MB Kongsberg multibeam vendor format
0571_20110304_134812_melville.all.mb58.gz 21.91MB Kongsberg multibeam vendor format
0572_20110304_141817_melville.all.mb58.gz 22.00MB Kongsberg multibeam vendor format
0573_20110304_144805_melville.all.mb58.gz 22.41MB Kongsberg multibeam vendor format
0574_20110304_151819_melville.all.mb58.gz 22.28MB Kongsberg multibeam vendor format
0575_20110304_154826_melville.all.mb58.gz 22.18MB Kongsberg multibeam vendor format
0576_20110304_161831_melville.all.mb58.gz 21.87MB Kongsberg multibeam vendor format
0577_20110304_164821_melville.all.mb58.gz 21.95MB Kongsberg multibeam vendor format
0578_20110304_171828_melville.all.mb58.gz 21.73MB Kongsberg multibeam vendor format
0579_20110304_174825_melville.all.mb58.gz 21.56MB Kongsberg multibeam vendor format
0580_20110304_181755_melville.all.mb58.gz 21.98MB Kongsberg multibeam vendor format
0581_20110304_184754_melville.all.mb58.gz 22.53MB Kongsberg multibeam vendor format
0582_20110304_191823_melville.all.mb58.gz 22.14MB Kongsberg multibeam vendor format
0583_20110304_194802_melville.all.mb58.gz 22.46MB Kongsberg multibeam vendor format
0584_20110304_201800_melville.all.mb58.gz 23.44MB Kongsberg multibeam vendor format
0585_20110304_204812_melville.all.mb58.gz 23.45MB Kongsberg multibeam vendor format
0586_20110304_211754_melville.all.mb58.gz 23.90MB Kongsberg multibeam vendor format
0587_20110304_214804_melville.all.mb58.gz 23.76MB Kongsberg multibeam vendor format
0588_20110304_221808_melville.all.mb58.gz 23.55MB Kongsberg multibeam vendor format
0589_20110304_224812_melville.all.mb58.gz 23.53MB Kongsberg multibeam vendor format
0590_20110304_231810_melville.all.mb58.gz 23.59MB Kongsberg multibeam vendor format
0591_20110304_234759_melville.all.mb58.gz 23.76MB Kongsberg multibeam vendor format
0592_20110305_001812_melville.all.mb58.gz 23.44MB Kongsberg multibeam vendor format
0593_20110305_004806_melville.all.mb58.gz 23.19MB Kongsberg multibeam vendor format
0594_20110305_011759_melville.all.mb58.gz 23.01MB Kongsberg multibeam vendor format
0595_20110305_014758_melville.all.mb58.gz 23.41MB Kongsberg multibeam vendor format
0596_20110305_021816_melville.all.mb58.gz 23.19MB Kongsberg multibeam vendor format
0597_20110305_024808_melville.all.mb58.gz 23.34MB Kongsberg multibeam vendor format
0598_20110305_031800_melville.all.mb58.gz 23.54MB Kongsberg multibeam vendor format
0599_20110305_034809_melville.all.mb58.gz 23.60MB Kongsberg multibeam vendor format
0600_20110305_041814_melville.all.mb58.gz 23.50MB Kongsberg multibeam vendor format
0601_20110305_044802_melville.all.mb58.gz 24.53MB Kongsberg multibeam vendor format
0602_20110305_051805_melville.all.mb58.gz 27.07MB Kongsberg multibeam vendor format
0603_20110305_054759_melville.all.mb58.gz 27.26MB Kongsberg multibeam vendor format
0604_20110305_061802_melville.all.mb58.gz 27.09MB Kongsberg multibeam vendor format
0605_20110305_064811_melville.all.mb58.gz 26.77MB Kongsberg multibeam vendor format
0606_20110305_071801_melville.all.mb58.gz 27.12MB Kongsberg multibeam vendor format
0607_20110305_074812_melville.all.mb58.gz 26.92MB Kongsberg multibeam vendor format
0608_20110305_081809_melville.all.mb58.gz 26.82MB Kongsberg multibeam vendor format
0609_20110305_084811_melville.all.mb58.gz 26.55MB Kongsberg multibeam vendor format
0610_20110305_091758_melville.all.mb58.gz 26.79MB Kongsberg multibeam vendor format
0611_20110305_094756_melville.all.mb58.gz 27.19MB Kongsberg multibeam vendor format
0612_20110305_101808_melville.all.mb58.gz 27.02MB Kongsberg multibeam vendor format
0613_20110305_104759_melville.all.mb58.gz 27.44MB Kongsberg multibeam vendor format
0614_20110305_111804_melville.all.mb58.gz 27.38MB Kongsberg multibeam vendor format
0615_20110305_114804_melville.all.mb58.gz 27.51MB Kongsberg multibeam vendor format
0616_20110305_121807_melville.all.mb58.gz 28.05MB Kongsberg multibeam vendor format
0617_20110305_124805_melville.all.mb58.gz 27.58MB Kongsberg multibeam vendor format
0618_20110305_131759_melville.all.mb58.gz 27.50MB Kongsberg multibeam vendor format
0619_20110305_134807_melville.all.mb58.gz 27.41MB Kongsberg multibeam vendor format
0620_20110305_141754_melville.all.mb58.gz 27.73MB Kongsberg multibeam vendor format
0621_20110305_144803_melville.all.mb58.gz 27.54MB Kongsberg multibeam vendor format
0622_20110305_151755_melville.all.mb58.gz 28.46MB Kongsberg multibeam vendor format
0623_20110305_154755_melville.all.mb58.gz 29.22MB Kongsberg multibeam vendor format
0624_20110305_161807_melville.all.mb58.gz 29.43MB Kongsberg multibeam vendor format
0625_20110305_164801_melville.all.mb58.gz 29.39MB Kongsberg multibeam vendor format
0626_20110305_171755_melville.all.mb58.gz 29.73MB Kongsberg multibeam vendor format
0627_20110305_174803_melville.all.mb58.gz 29.16MB Kongsberg multibeam vendor format
0628_20110305_181755_melville.all.mb58.gz 30.14MB Kongsberg multibeam vendor format
0629_20110305_184800_melville.all.mb58.gz 30.49MB Kongsberg multibeam vendor format
0630_20110305_191803_melville.all.mb58.gz 30.22MB Kongsberg multibeam vendor format
0631_20110305_194755_melville.all.mb58.gz 31.00MB Kongsberg multibeam vendor format
0632_20110305_201757_melville.all.mb58.gz 31.19MB Kongsberg multibeam vendor format
0633_20110305_204800_melville.all.mb58.gz 31.24MB Kongsberg multibeam vendor format
0634_20110305_211803_melville.all.mb58.gz 32.48MB Kongsberg multibeam vendor format
0635_20110305_214801_melville.all.mb58.gz 32.89MB Kongsberg multibeam vendor format
0636_20110305_221801_melville.all.mb58.gz 32.60MB Kongsberg multibeam vendor format
0637_20110305_224754_melville.all.mb58.gz 33.19MB Kongsberg multibeam vendor format
0638_20110305_231755_melville.all.mb58.gz 33.55MB Kongsberg multibeam vendor format
0639_20110305_234757_melville.all.mb58.gz 33.76MB Kongsberg multibeam vendor format
0640_20110306_001800_melville.all.mb58.gz 34.65MB Kongsberg multibeam vendor format
0641_20110306_004755_melville.all.mb58.gz 38.26MB Kongsberg multibeam vendor format
0642_20110306_011758_melville.all.mb58.gz 39.36MB Kongsberg multibeam vendor format
0643_20110306_014756_melville.all.mb58.gz 40.72MB Kongsberg multibeam vendor format
0644_20110306_021756_melville.all.mb58.gz 41.29MB Kongsberg multibeam vendor format
0645_20110306_024753_melville.all.mb58.gz 42.27MB Kongsberg multibeam vendor format
0646_20110306_031754_melville.all.mb58.gz 43.21MB Kongsberg multibeam vendor format
0647_20110306_034756_melville.all.mb58.gz 44.40MB Kongsberg multibeam vendor format
0648_20110306_041756_melville.all.mb58.gz 45.58MB Kongsberg multibeam vendor format
0649_20110306_044754_melville.all.mb58.gz 46.39MB Kongsberg multibeam vendor format
0650_20110306_051754_melville.all.mb58.gz 46.80MB Kongsberg multibeam vendor format
0651_20110306_054753_melville.all.mb58.gz 48.14MB Kongsberg multibeam vendor format
0652_20110306_061754_melville.all.mb58.gz 48.99MB Kongsberg multibeam vendor format
0653_20110306_064753_melville.all.mb58.gz 49.99MB Kongsberg multibeam vendor format
0654_20110306_071753_melville.all.mb58.gz 52.34MB Kongsberg multibeam vendor format
0655_20110306_074753_melville.all.mb58.gz 54.95MB Kongsberg multibeam vendor format
0656_20110306_081753_melville.all.mb58.gz 59.58MB Kongsberg multibeam vendor format
0657_20110306_084753_melville.all.mb58.gz 71.54MB Kongsberg multibeam vendor format
0658_20110306_091753_melville.all.mb58.gz 74.08MB Kongsberg multibeam vendor format
0659_20110306_094752_melville.all.mb58.gz 74.89MB Kongsberg multibeam vendor format
0660_20110306_101753_melville.all.mb58.gz 74.48MB Kongsberg multibeam vendor format
0661_20110306_104753_melville.all.mb58.gz 74.46MB Kongsberg multibeam vendor format
0662_20110306_111753_melville.all.mb58.gz 74.69MB Kongsberg multibeam vendor format
0663_20110306_114752_melville.all.mb58.gz 74.29MB Kongsberg multibeam vendor format
0664_20110306_121752_melville.all.mb58.gz 74.20MB Kongsberg multibeam vendor format
0665_20110306_124752_melville.all.mb58.gz 73.53MB Kongsberg multibeam vendor format
0666_20110306_131752_melville.all.mb58.gz 73.10MB Kongsberg multibeam vendor format
0667_20110306_134753_melville.all.mb58.gz 38.80MB Kongsberg multibeam vendor format
0668_20110306_141759_melville.all.mb58.gz 20.60MB Kongsberg multibeam vendor format
0669_20110306_144756_melville.all.mb58.gz 22.36MB Kongsberg multibeam vendor format
0670_20110306_151752_melville.all.mb58.gz 20.75MB Kongsberg multibeam vendor format
0671_20110306_154752_melville.all.mb58.gz 21.17MB Kongsberg multibeam vendor format
0672_20110306_161756_melville.all.mb58.gz 23.06MB Kongsberg multibeam vendor format
0673_20110306_164753_melville.all.mb58.gz 24.25MB Kongsberg multibeam vendor format
0674_20110306_171753_melville.all.mb58.gz 28.84MB Kongsberg multibeam vendor format
0675_20110306_174753_melville.all.mb58.gz 51.67MB Kongsberg multibeam vendor format
0676_20110306_181752_melville.all.mb58.gz 72.84MB Kongsberg multibeam vendor format
0677_20110306_184752_melville.all.mb58.gz 72.61MB Kongsberg multibeam vendor format
0678_20110306_191752_melville.all.mb58.gz 72.81MB Kongsberg multibeam vendor format
0679_20110306_194753_melville.all.mb58.gz 73.06MB Kongsberg multibeam vendor format
0680_20110306_201752_melville.all.mb58.gz 72.99MB Kongsberg multibeam vendor format
0681_20110306_204752_melville.all.mb58.gz 73.66MB Kongsberg multibeam vendor format
0682_20110306_211753_melville.all.mb58.gz 74.27MB Kongsberg multibeam vendor format
0683_20110306_214752_melville.all.mb58.gz 74.82MB Kongsberg multibeam vendor format
0684_20110306_221752_melville.all.mb58.gz 74.99MB Kongsberg multibeam vendor format
0685_20110306_224752_melville.all.mb58.gz 74.99MB Kongsberg multibeam vendor format
0686_20110306_231752_melville.all.mb58.gz 74.48MB Kongsberg multibeam vendor format
0687_20110306_234752_melville.all.mb58.gz 71.89MB Kongsberg multibeam vendor format
0688_20110307_001752_melville.all.mb58.gz 70.00MB Kongsberg multibeam vendor format
0689_20110307_004751_melville.all.mb58.gz 67.49MB Kongsberg multibeam vendor format
0690_20110307_011752_melville.all.mb58.gz 64.29MB Kongsberg multibeam vendor format
0691_20110307_014753_melville.all.mb58.gz 64.42MB Kongsberg multibeam vendor format
0692_20110307_021753_melville.all.mb58.gz 64.55MB Kongsberg multibeam vendor format
0693_20110307_024751_melville.all.mb58.gz 65.84MB Kongsberg multibeam vendor format
0694_20110307_031752_melville.all.mb58.gz 66.61MB Kongsberg multibeam vendor format
0695_20110307_034752_melville.all.mb58.gz 67.21MB Kongsberg multibeam vendor format
0696_20110307_041752_melville.all.mb58.gz 67.80MB Kongsberg multibeam vendor format
0697_20110307_044752_melville.all.mb58.gz 68.18MB Kongsberg multibeam vendor format
0698_20110307_051752_melville.all.mb58.gz 68.81MB Kongsberg multibeam vendor format
0699_20110307_054751_melville.all.mb58.gz 69.96MB Kongsberg multibeam vendor format
0700_20110307_061751_melville.all.mb58.gz 70.70MB Kongsberg multibeam vendor format
0701_20110307_064752_melville.all.mb58.gz 71.05MB Kongsberg multibeam vendor format
0702_20110307_071751_melville.all.mb58.gz 71.72MB Kongsberg multibeam vendor format
0703_20110307_074752_melville.all.mb58.gz 71.91MB Kongsberg multibeam vendor format
0704_20110307_081751_melville.all.mb58.gz 71.73MB Kongsberg multibeam vendor format
0705_20110307_084751_melville.all.mb58.gz 71.02MB Kongsberg multibeam vendor format
0706_20110307_091752_melville.all.mb58.gz 70.67MB Kongsberg multibeam vendor format
0707_20110307_094752_melville.all.mb58.gz 70.81MB Kongsberg multibeam vendor format
0708_20110307_101752_melville.all.mb58.gz 71.46MB Kongsberg multibeam vendor format
0709_20110307_104752_melville.all.mb58.gz 71.26MB Kongsberg multibeam vendor format
0710_20110307_111752_melville.all.mb58.gz 71.78MB Kongsberg multibeam vendor format
0711_20110307_114751_melville.all.mb58.gz 72.57MB Kongsberg multibeam vendor format
0712_20110307_121751_melville.all.mb58.gz 73.62MB Kongsberg multibeam vendor format
0713_20110307_124751_melville.all.mb58.gz 73.39MB Kongsberg multibeam vendor format
0714_20110307_131752_melville.all.mb58.gz 69.43MB Kongsberg multibeam vendor format
0715_20110307_134751_melville.all.mb58.gz 76.34MB Kongsberg multibeam vendor format
0716_20110307_141752_melville.all.mb58.gz 76.41MB Kongsberg multibeam vendor format
0717_20110307_144751_melville.all.mb58.gz 78.27MB Kongsberg multibeam vendor format
0718_20110307_151751_melville.all.mb58.gz 77.91MB Kongsberg multibeam vendor format
0719_20110307_154751_melville.all.mb58.gz 78.25MB Kongsberg multibeam vendor format
0720_20110307_161751_melville.all.mb58.gz 78.61MB Kongsberg multibeam vendor format
0721_20110307_164751_melville.all.mb58.gz 79.95MB Kongsberg multibeam vendor format
0722_20110307_171751_melville.all.mb58.gz 80.79MB Kongsberg multibeam vendor format
0723_20110307_174751_melville.all.mb58.gz 82.51MB Kongsberg multibeam vendor format
0724_20110307_181751_melville.all.mb58.gz 82.78MB Kongsberg multibeam vendor format
0725_20110307_184751_melville.all.mb58.gz 83.55MB Kongsberg multibeam vendor format
0726_20110307_191751_melville.all.mb58.gz 81.95MB Kongsberg multibeam vendor format
0727_20110307_194751_melville.all.mb58.gz 84.17MB Kongsberg multibeam vendor format
0728_20110307_201751_melville.all.mb58.gz 85.65MB Kongsberg multibeam vendor format
0729_20110307_204751_melville.all.mb58.gz 73.77MB Kongsberg multibeam vendor format
0729_20110307_214453_melville.all.mb58.gz 7.27MB Kongsberg multibeam vendor format
0730_20110307_215617_melville.all.mb58.gz 162.3KB Kongsberg multibeam vendor format
0731_20110307_220451_melville.all.mb58.gz 5.78MB Kongsberg multibeam vendor format
0731_20110307_221638_melville.all.mb58.gz 10.17MB Kongsberg multibeam vendor format
0732_20110307_222958_melville.all.mb58.gz 1.08MB Kongsberg multibeam vendor format
0732_20110307_223223_melville.all.mb58.gz 20.15MB Kongsberg multibeam vendor format
0733_20110307_230236_melville.all.mb58.gz 56.44MB Kongsberg multibeam vendor format
0734_20110307_233224_melville.all.mb58.gz 87.48MB Kongsberg multibeam vendor format
0735_20110308_000224_melville.all.mb58.gz 90.66MB Kongsberg multibeam vendor format
0736_20110308_003224_melville.all.mb58.gz 91.57MB Kongsberg multibeam vendor format
0737_20110308_010224_melville.all.mb58.gz 95.58MB Kongsberg multibeam vendor format
0738_20110308_013224_melville.all.mb58.gz 105.73MB Kongsberg multibeam vendor format
0739_20110308_020224_melville.all.mb58.gz 112.51MB Kongsberg multibeam vendor format
0740_20110308_023224_melville.all.mb58.gz 116.44MB Kongsberg multibeam vendor format
0741_20110308_030224_melville.all.mb58.gz 99.11MB Kongsberg multibeam vendor format
0742_20110308_033224_melville.all.mb58.gz 101.21MB Kongsberg multibeam vendor format
0743_20110308_040224_melville.all.mb58.gz 100.49MB Kongsberg multibeam vendor format
0744_20110308_043224_melville.all.mb58.gz 102.56MB Kongsberg multibeam vendor format
0745_20110308_050224_melville.all.mb58.gz 100.66MB Kongsberg multibeam vendor format
0746_20110308_053224_melville.all.mb58.gz 99.18MB Kongsberg multibeam vendor format
0747_20110308_060224_melville.all.mb58.gz 99.52MB Kongsberg multibeam vendor format
0748_20110308_063224_melville.all.mb58.gz 99.67MB Kongsberg multibeam vendor format
0749_20110308_070224_melville.all.mb58.gz 106.41MB Kongsberg multibeam vendor format
0750_20110308_073223_melville.all.mb58.gz 120.80MB Kongsberg multibeam vendor format
0751_20110308_080223_melville.all.mb58.gz 119.60MB Kongsberg multibeam vendor format
0752_20110308_083224_melville.all.mb58.gz 118.73MB Kongsberg multibeam vendor format
0753_20110308_090223_melville.all.mb58.gz 92.44MB Kongsberg multibeam vendor format
0754_20110308_093224_melville.all.mb58.gz 91.60MB Kongsberg multibeam vendor format
0755_20110308_100224_melville.all.mb58.gz 66.75MB Kongsberg multibeam vendor format
0756_20110308_103232_melville.all.mb58.gz 18.47MB Kongsberg multibeam vendor format
0757_20110308_110235_melville.all.mb58.gz 19.37MB Kongsberg multibeam vendor format
0758_20110308_113223_melville.all.mb58.gz 103.21MB Kongsberg multibeam vendor format
0759_20110308_120224_melville.all.mb58.gz 100.31MB Kongsberg multibeam vendor format
0760_20110308_123224_melville.all.mb58.gz 87.99MB Kongsberg multibeam vendor format
0761_20110308_130223_melville.all.mb58.gz 91.60MB Kongsberg multibeam vendor format
0762_20110308_133223_melville.all.mb58.gz 84.93MB Kongsberg multibeam vendor format
0763_20110308_140223_melville.all.mb58.gz 80.77MB Kongsberg multibeam vendor format
0764_20110308_143223_melville.all.mb58.gz 83.06MB Kongsberg multibeam vendor format
0765_20110308_150223_melville.all.mb58.gz 79.40MB Kongsberg multibeam vendor format
0766_20110308_153223_melville.all.mb58.gz 107.48MB Kongsberg multibeam vendor format
0767_20110308_160223_melville.all.mb58.gz 108.62MB Kongsberg multibeam vendor format
0768_20110308_163223_melville.all.mb58.gz 103.52MB Kongsberg multibeam vendor format
0769_20110308_170223_melville.all.mb58.gz 101.83MB Kongsberg multibeam vendor format
0770_20110308_173223_melville.all.mb58.gz 72.94MB Kongsberg multibeam vendor format
0771_20110308_180224_melville.all.mb58.gz 65.46MB Kongsberg multibeam vendor format
0772_20110308_183223_melville.all.mb58.gz 56.19MB Kongsberg multibeam vendor format
0773_20110308_190224_melville.all.mb58.gz 55.17MB Kongsberg multibeam vendor format
0774_20110308_193224_melville.all.mb58.gz 49.54MB Kongsberg multibeam vendor format
0775_20110308_200225_melville.all.mb58.gz 47.68MB Kongsberg multibeam vendor format
0776_20110308_203225_melville.all.mb58.gz 41.84MB Kongsberg multibeam vendor format
0777_20110308_210223_melville.all.mb58.gz 40.42MB Kongsberg multibeam vendor format
0778_20110308_213223_melville.all.mb58.gz 42.83MB Kongsberg multibeam vendor format
0779_20110308_220225_melville.all.mb58.gz 52.68MB Kongsberg multibeam vendor format
0780_20110308_223224_melville.all.mb58.gz 46.67MB Kongsberg multibeam vendor format
0781_20110308_230224_melville.all.mb58.gz 53.19MB Kongsberg multibeam vendor format
0782_20110308_233225_melville.all.mb58.gz 57.81MB Kongsberg multibeam vendor format
0783_20110309_000223_melville.all.mb58.gz 58.99MB Kongsberg multibeam vendor format
0784_20110309_003225_melville.all.mb58.gz 46.51MB Kongsberg multibeam vendor format
0785_20110309_010223_melville.all.mb58.gz 63.66MB Kongsberg multibeam vendor format
0786_20110309_013223_melville.all.mb58.gz 71.88MB Kongsberg multibeam vendor format
0787_20110309_020223_melville.all.mb58.gz 58.77MB Kongsberg multibeam vendor format
0788_20110309_023223_melville.all.mb58.gz 49.83MB Kongsberg multibeam vendor format
0789_20110309_030225_melville.all.mb58.gz 41.07MB Kongsberg multibeam vendor format
0790_20110309_033224_melville.all.mb58.gz 37.73MB Kongsberg multibeam vendor format
0791_20110309_040225_melville.all.mb58.gz 38.66MB Kongsberg multibeam vendor format
0792_20110309_043224_melville.all.mb58.gz 38.10MB Kongsberg multibeam vendor format
0793_20110309_050223_melville.all.mb58.gz 35.86MB Kongsberg multibeam vendor format
0794_20110309_053223_melville.all.mb58.gz 38.29MB Kongsberg multibeam vendor format
0795_20110309_060226_melville.all.mb58.gz 35.14MB Kongsberg multibeam vendor format
0796_20110309_063223_melville.all.mb58.gz 40.57MB Kongsberg multibeam vendor format
0797_20110309_070225_melville.all.mb58.gz 38.93MB Kongsberg multibeam vendor format
0798_20110309_073224_melville.all.mb58.gz 50.31MB Kongsberg multibeam vendor format
0799_20110309_080223_melville.all.mb58.gz 41.69MB Kongsberg multibeam vendor format
0800_20110309_083227_melville.all.mb58.gz 39.42MB Kongsberg multibeam vendor format
0801_20110309_090225_melville.all.mb58.gz 46.02MB Kongsberg multibeam vendor format
0802_20110309_093225_melville.all.mb58.gz 54.10MB Kongsberg multibeam vendor format
0803_20110309_100223_melville.all.mb58.gz 62.18MB Kongsberg multibeam vendor format
0804_20110309_103222_melville.all.mb58.gz 84.56MB Kongsberg multibeam vendor format
0805_20110309_110222_melville.all.mb58.gz 72.74MB Kongsberg multibeam vendor format
0806_20110309_113230_melville.all.mb58.gz 19.96MB Kongsberg multibeam vendor format
0807_20110309_120228_melville.all.mb58.gz 8.42MB Kongsberg multibeam vendor format
0808_20110309_121516_melville.all.mb58.gz 84.0KB Kongsberg multibeam vendor format
0809_20110309_121533_melville.all.mb58.gz 396.2KB Kongsberg multibeam vendor format
0810_20110309_121642_melville.all.mb58.gz 1.23MB Kongsberg multibeam vendor format
0811_20110309_122014_melville.all.mb58.gz 3.23MB Kongsberg multibeam vendor format
0811_20110309_122913_melville.all.mb58.gz 22.02MB Kongsberg multibeam vendor format
0812_20110309_125919_melville.all.mb58.gz 42.99MB Kongsberg multibeam vendor format
0813_20110309_132914_melville.all.mb58.gz 48.29MB Kongsberg multibeam vendor format
0814_20110309_135915_melville.all.mb58.gz 66.90MB Kongsberg multibeam vendor format
0815_20110309_142914_melville.all.mb58.gz 82.44MB Kongsberg multibeam vendor format
0816_20110309_145913_melville.all.mb58.gz 85.40MB Kongsberg multibeam vendor format
0817_20110309_152913_melville.all.mb58.gz 48.84MB Kongsberg multibeam vendor format
0818_20110309_155913_melville.all.mb58.gz 92.38MB Kongsberg multibeam vendor format
0819_20110309_162914_melville.all.mb58.gz 64.45MB Kongsberg multibeam vendor format
0820_20110309_165913_melville.all.mb58.gz 55.15MB Kongsberg multibeam vendor format
0821_20110309_172915_melville.all.mb58.gz 45.61MB Kongsberg multibeam vendor format
0822_20110309_175914_melville.all.mb58.gz 64.91MB Kongsberg multibeam vendor format
0823_20110309_182914_melville.all.mb58.gz 44.57MB Kongsberg multibeam vendor format
0824_20110309_185914_melville.all.mb58.gz 51.16MB Kongsberg multibeam vendor format
0825_20110309_192913_melville.all.mb58.gz 51.17MB Kongsberg multibeam vendor format
0826_20110309_195915_melville.all.mb58.gz 50.24MB Kongsberg multibeam vendor format
0827_20110309_202913_melville.all.mb58.gz 69.77MB Kongsberg multibeam vendor format
0828_20110309_205914_melville.all.mb58.gz 67.61MB Kongsberg multibeam vendor format
0829_20110309_212913_melville.all.mb58.gz 78.48MB Kongsberg multibeam vendor format
0830_20110309_215913_melville.all.mb58.gz 67.24MB Kongsberg multibeam vendor format
0831_20110309_222914_melville.all.mb58.gz 53.68MB Kongsberg multibeam vendor format
0832_20110309_225913_melville.all.mb58.gz 50.21MB Kongsberg multibeam vendor format
0833_20110309_232914_melville.all.mb58.gz 58.14MB Kongsberg multibeam vendor format
0834_20110309_235913_melville.all.mb58.gz 49.28MB Kongsberg multibeam vendor format
0835_20110310_002915_melville.all.mb58.gz 38.98MB Kongsberg multibeam vendor format
0836_20110310_005913_melville.all.mb58.gz 44.56MB Kongsberg multibeam vendor format
0837_20110310_012914_melville.all.mb58.gz 42.21MB Kongsberg multibeam vendor format
0838_20110310_015916_melville.all.mb58.gz 37.85MB Kongsberg multibeam vendor format
0839_20110310_022915_melville.all.mb58.gz 40.65MB Kongsberg multibeam vendor format
0840_20110310_025913_melville.all.mb58.gz 43.69MB Kongsberg multibeam vendor format
0841_20110310_032913_melville.all.mb58.gz 56.13MB Kongsberg multibeam vendor format
0842_20110310_035913_melville.all.mb58.gz 41.58MB Kongsberg multibeam vendor format
0843_20110310_042915_melville.all.mb58.gz 51.38MB Kongsberg multibeam vendor format
0844_20110310_045912_melville.all.mb58.gz 58.56MB Kongsberg multibeam vendor format
0845_20110310_052913_melville.all.mb58.gz 55.79MB Kongsberg multibeam vendor format
0846_20110310_055912_melville.all.mb58.gz 56.24MB Kongsberg multibeam vendor format
0847_20110310_062914_melville.all.mb58.gz 58.64MB Kongsberg multibeam vendor format
0848_20110310_065913_melville.all.mb58.gz 64.75MB Kongsberg multibeam vendor format
0849_20110310_072913_melville.all.mb58.gz 39.45MB Kongsberg multibeam vendor format
0850_20110310_075912_melville.all.mb58.gz 43.29MB Kongsberg multibeam vendor format
0851_20110310_082914_melville.all.mb58.gz 44.06MB Kongsberg multibeam vendor format
0852_20110310_085912_melville.all.mb58.gz 45.89MB Kongsberg multibeam vendor format
0853_20110310_092914_melville.all.mb58.gz 45.59MB Kongsberg multibeam vendor format
0854_20110310_095915_melville.all.mb58.gz 47.30MB Kongsberg multibeam vendor format
0855_20110310_102915_melville.all.mb58.gz 48.12MB Kongsberg multibeam vendor format
0856_20110310_105913_melville.all.mb58.gz 48.92MB Kongsberg multibeam vendor format
0857_20110310_112914_melville.all.mb58.gz 40.79MB Kongsberg multibeam vendor format
0858_20110310_115915_melville.all.mb58.gz 41.72MB Kongsberg multibeam vendor format
0859_20110310_122913_melville.all.mb58.gz 47.74MB Kongsberg multibeam vendor format
0860_20110310_125913_melville.all.mb58.gz 54.82MB Kongsberg multibeam vendor format
0861_20110310_132913_melville.all.mb58.gz 53.95MB Kongsberg multibeam vendor format
0862_20110310_135913_melville.all.mb58.gz 67.12MB Kongsberg multibeam vendor format
0863_20110310_142912_melville.all.mb58.gz 74.19MB Kongsberg multibeam vendor format
0864_20110310_145912_melville.all.mb58.gz 68.97MB Kongsberg multibeam vendor format
0865_20110310_152912_melville.all.mb58.gz 108.65MB Kongsberg multibeam vendor format
0866_20110310_155912_melville.all.mb58.gz 124.54MB Kongsberg multibeam vendor format
0867_20110310_162912_melville.all.mb58.gz 60.76MB Kongsberg multibeam vendor format
0868_20110310_165912_melville.all.mb58.gz 44.73MB Kongsberg multibeam vendor format
0869_20110310_172912_melville.all.mb58.gz 43.74MB Kongsberg multibeam vendor format
0870_20110310_175912_melville.all.mb58.gz 42.52MB Kongsberg multibeam vendor format
0871_20110310_182912_melville.all.mb58.gz 42.27MB Kongsberg multibeam vendor format
0872_20110310_185914_melville.all.mb58.gz 48.56MB Kongsberg multibeam vendor format
0873_20110310_192912_melville.all.mb58.gz 49.83MB Kongsberg multibeam vendor format
0874_20110310_195912_melville.all.mb58.gz 54.41MB Kongsberg multibeam vendor format
0875_20110310_202912_melville.all.mb58.gz 46.93MB Kongsberg multibeam vendor format
0876_20110310_205914_melville.all.mb58.gz 41.96MB Kongsberg multibeam vendor format
0877_20110310_212915_melville.all.mb58.gz 41.38MB Kongsberg multibeam vendor format
0878_20110310_215911_melville.all.mb58.gz 45.80MB Kongsberg multibeam vendor format
0879_20110310_222912_melville.all.mb58.gz 43.65MB Kongsberg multibeam vendor format
0880_20110310_225913_melville.all.mb58.gz 46.54MB Kongsberg multibeam vendor format
0881_20110310_232911_melville.all.mb58.gz 47.85MB Kongsberg multibeam vendor format
0882_20110310_235913_melville.all.mb58.gz 77.11MB Kongsberg multibeam vendor format
0883_20110311_002912_melville.all.mb58.gz 102.63MB Kongsberg multibeam vendor format
0884_20110311_005912_melville.all.mb58.gz 101.47MB Kongsberg multibeam vendor format
0885_20110311_012911_melville.all.mb58.gz 76.44MB Kongsberg multibeam vendor format
0886_20110311_015912_melville.all.mb58.gz 53.00MB Kongsberg multibeam vendor format
0887_20110311_022912_melville.all.mb58.gz 29.55MB Kongsberg multibeam vendor format
0888_20110311_025912_melville.all.mb58.gz 20.29MB Kongsberg multibeam vendor format
0889_20110311_032912_melville.all.mb58.gz 21.27MB Kongsberg multibeam vendor format
0890_20110311_035912_melville.all.mb58.gz 20.00MB Kongsberg multibeam vendor format
0891_20110311_042911_melville.all.mb58.gz 20.60MB Kongsberg multibeam vendor format
0892_20110311_045917_melville.all.mb58.gz 26.66MB Kongsberg multibeam vendor format
0893_20110311_052912_melville.all.mb58.gz 25.59MB Kongsberg multibeam vendor format
0894_20110311_055912_melville.all.mb58.gz 20.28MB Kongsberg multibeam vendor format
0895_20110311_062912_melville.all.mb58.gz 24.06MB Kongsberg multibeam vendor format
0896_20110311_065913_melville.all.mb58.gz 25.80MB Kongsberg multibeam vendor format
0897_20110311_072912_melville.all.mb58.gz 20.75MB Kongsberg multibeam vendor format
0898_20110311_075912_melville.all.mb58.gz 19.90MB Kongsberg multibeam vendor format
0899_20110311_082911_melville.all.mb58.gz 19.91MB Kongsberg multibeam vendor format
0900_20110311_085912_melville.all.mb58.gz 19.74MB Kongsberg multibeam vendor format
0901_20110311_092911_melville.all.mb58.gz 22.95MB Kongsberg multibeam vendor format
0902_20110311_095911_melville.all.mb58.gz 22.64MB Kongsberg multibeam vendor format
0903_20110311_102911_melville.all.mb58.gz 21.34MB Kongsberg multibeam vendor format
0904_20110311_105927_melville.all.mb58.gz 23.48MB Kongsberg multibeam vendor format
0905_20110311_112913_melville.all.mb58.gz 23.68MB Kongsberg multibeam vendor format
0906_20110311_115918_melville.all.mb58.gz 23.46MB Kongsberg multibeam vendor format
0907_20110311_122915_melville.all.mb58.gz 23.38MB Kongsberg multibeam vendor format
0908_20110311_125921_melville.all.mb58.gz 23.25MB Kongsberg multibeam vendor format
0909_20110311_132927_melville.all.mb58.gz 23.21MB Kongsberg multibeam vendor format
0910_20110311_135919_melville.all.mb58.gz 23.23MB Kongsberg multibeam vendor format
0911_20110311_142917_melville.all.mb58.gz 23.42MB Kongsberg multibeam vendor format
0912_20110311_145931_melville.all.mb58.gz 23.43MB Kongsberg multibeam vendor format
0913_20110311_152911_melville.all.mb58.gz 23.44MB Kongsberg multibeam vendor format
0914_20110311_155926_melville.all.mb58.gz 23.47MB Kongsberg multibeam vendor format
0915_20110311_162934_melville.all.mb58.gz 23.51MB Kongsberg multibeam vendor format
0916_20110311_165933_melville.all.mb58.gz 23.43MB Kongsberg multibeam vendor format
0917_20110311_172924_melville.all.mb58.gz 23.58MB Kongsberg multibeam vendor format
0918_20110311_175933_melville.all.mb58.gz 23.25MB Kongsberg multibeam vendor format
0919_20110311_182922_melville.all.mb58.gz 23.55MB Kongsberg multibeam vendor format
0920_20110311_185923_melville.all.mb58.gz 23.22MB Kongsberg multibeam vendor format
0921_20110311_192935_melville.all.mb58.gz 22.59MB Kongsberg multibeam vendor format
0922_20110311_195916_melville.all.mb58.gz 23.07MB Kongsberg multibeam vendor format
0923_20110311_202933_melville.all.mb58.gz 24.26MB Kongsberg multibeam vendor format
0924_20110311_205919_melville.all.mb58.gz 26.83MB Kongsberg multibeam vendor format
0925_20110311_212921_melville.all.mb58.gz 24.53MB Kongsberg multibeam vendor format
0926_20110311_215921_melville.all.mb58.gz 25.11MB Kongsberg multibeam vendor format
0927_20110311_222926_melville.all.mb58.gz 27.77MB Kongsberg multibeam vendor format
0928_20110311_225920_melville.all.mb58.gz 30.90MB Kongsberg multibeam vendor format
0929_20110311_232912_melville.all.mb58.gz 39.23MB Kongsberg multibeam vendor format
0930_20110311_235916_melville.all.mb58.gz 29.53MB Kongsberg multibeam vendor format
0931_20110312_002916_melville.all.mb58.gz 30.16MB Kongsberg multibeam vendor format
0932_20110312_005919_melville.all.mb58.gz 54.00MB Kongsberg multibeam vendor format
0933_20110312_012911_melville.all.mb58.gz 63.70MB Kongsberg multibeam vendor format
0934_20110312_015911_melville.all.mb58.gz 43.77MB Kongsberg multibeam vendor format
0935_20110312_022912_melville.all.mb58.gz 43.73MB Kongsberg multibeam vendor format
0936_20110312_025911_melville.all.mb58.gz 36.56MB Kongsberg multibeam vendor format
0937_20110312_032915_melville.all.mb58.gz 40.60MB Kongsberg multibeam vendor format
0938_20110312_035910_melville.all.mb58.gz 62.43MB Kongsberg multibeam vendor format
0939_20110312_042910_melville.all.mb58.gz 65.26MB Kongsberg multibeam vendor format
0940_20110312_045911_melville.all.mb58.gz 68.61MB Kongsberg multibeam vendor format
0941_20110312_052910_melville.all.mb58.gz 69.21MB Kongsberg multibeam vendor format
0942_20110312_055910_melville.all.mb58.gz 71.58MB Kongsberg multibeam vendor format
0943_20110312_062910_melville.all.mb58.gz 72.89MB Kongsberg multibeam vendor format
0944_20110312_065910_melville.all.mb58.gz 73.83MB Kongsberg multibeam vendor format
0945_20110312_072910_melville.all.mb58.gz 73.77MB Kongsberg multibeam vendor format
0946_20110312_075910_melville.all.mb58.gz 67.42MB Kongsberg multibeam vendor format
0947_20110312_082910_melville.all.mb58.gz 52.60MB Kongsberg multibeam vendor format
0948_20110312_085910_melville.all.mb58.gz 63.89MB Kongsberg multibeam vendor format
0949_20110312_092910_melville.all.mb58.gz 62.99MB Kongsberg multibeam vendor format
0950_20110312_095911_melville.all.mb58.gz 55.61MB Kongsberg multibeam vendor format
0951_20110312_102910_melville.all.mb58.gz 44.67MB Kongsberg multibeam vendor format
0952_20110312_105914_melville.all.mb58.gz 41.15MB Kongsberg multibeam vendor format
0953_20110312_112913_melville.all.mb58.gz 41.34MB Kongsberg multibeam vendor format
0954_20110312_115912_melville.all.mb58.gz 41.77MB Kongsberg multibeam vendor format
0955_20110312_122910_melville.all.mb58.gz 38.17MB Kongsberg multibeam vendor format
0956_20110312_125918_melville.all.mb58.gz 31.67MB Kongsberg multibeam vendor format
0957_20110312_132919_melville.all.mb58.gz 29.05MB Kongsberg multibeam vendor format
0958_20110312_135922_melville.all.mb58.gz 27.12MB Kongsberg multibeam vendor format
0959_20110312_142910_melville.all.mb58.gz 22.67MB Kongsberg multibeam vendor format
0960_20110312_150155_melville.all.mb58.gz 28.13MB Kongsberg multibeam vendor format
0961_20110312_153141_melville.all.mb58.gz 28.07MB Kongsberg multibeam vendor format
0962_20110312_160153_melville.all.mb58.gz 24.78MB Kongsberg multibeam vendor format
0963_20110312_163148_melville.all.mb58.gz 27.40MB Kongsberg multibeam vendor format
0964_20110312_170144_melville.all.mb58.gz 25.48MB Kongsberg multibeam vendor format
0965_20110312_173156_melville.all.mb58.gz 24.28MB Kongsberg multibeam vendor format
0966_20110312_180146_melville.all.mb58.gz 26.60MB Kongsberg multibeam vendor format
0967_20110312_183143_melville.all.mb58.gz 27.82MB Kongsberg multibeam vendor format
0968_20110312_190149_melville.all.mb58.gz 27.01MB Kongsberg multibeam vendor format
0969_20110312_193150_melville.all.mb58.gz 27.09MB Kongsberg multibeam vendor format
0970_20110312_200139_melville.all.mb58.gz 26.25MB Kongsberg multibeam vendor format
0971_20110312_203158_melville.all.mb58.gz 28.03MB Kongsberg multibeam vendor format
0972_20110312_210145_melville.all.mb58.gz 25.39MB Kongsberg multibeam vendor format
0973_20110312_213153_melville.all.mb58.gz 25.97MB Kongsberg multibeam vendor format
0974_20110312_220202_melville.all.mb58.gz 25.33MB Kongsberg multibeam vendor format
0975_20110312_223141_melville.all.mb58.gz 24.56MB Kongsberg multibeam vendor format
0976_20110312_230157_melville.all.mb58.gz 23.74MB Kongsberg multibeam vendor format
0977_20110312_233152_melville.all.mb58.gz 24.59MB Kongsberg multibeam vendor format
0978_20110313_000148_melville.all.mb58.gz 24.78MB Kongsberg multibeam vendor format
0979_20110313_003154_melville.all.mb58.gz 27.00MB Kongsberg multibeam vendor format
0980_20110313_010138_melville.all.mb58.gz 26.08MB Kongsberg multibeam vendor format
0981_20110313_013203_melville.all.mb58.gz 23.32MB Kongsberg multibeam vendor format
0982_20110313_020150_melville.all.mb58.gz 24.21MB Kongsberg multibeam vendor format
0983_20110313_023159_melville.all.mb58.gz 22.24MB Kongsberg multibeam vendor format
0984_20110313_030154_melville.all.mb58.gz 21.87MB Kongsberg multibeam vendor format
0985_20110313_033207_melville.all.mb58.gz 21.76MB Kongsberg multibeam vendor format
0986_20110313_040204_melville.all.mb58.gz 21.78MB Kongsberg multibeam vendor format
0987_20110313_043157_melville.all.mb58.gz 21.84MB Kongsberg multibeam vendor format
0988_20110313_050147_melville.all.mb58.gz 21.87MB Kongsberg multibeam vendor format
0989_20110313_053143_melville.all.mb58.gz 22.28MB Kongsberg multibeam vendor format
0990_20110313_060203_melville.all.mb58.gz 21.68MB Kongsberg multibeam vendor format
0991_20110313_063140_melville.all.mb58.gz 22.06MB Kongsberg multibeam vendor format
0992_20110313_070147_melville.all.mb58.gz 22.04MB Kongsberg multibeam vendor format
0993_20110313_073157_melville.all.mb58.gz 22.05MB Kongsberg multibeam vendor format
0994_20110313_080212_melville.all.mb58.gz 21.54MB Kongsberg multibeam vendor format
0995_20110313_083142_melville.all.mb58.gz 22.01MB Kongsberg multibeam vendor format
0996_20110313_090149_melville.all.mb58.gz 22.14MB Kongsberg multibeam vendor format
0997_20110313_093209_melville.all.mb58.gz 21.59MB Kongsberg multibeam vendor format
0998_20110313_100150_melville.all.mb58.gz 22.14MB Kongsberg multibeam vendor format
0999_20110313_103208_melville.all.mb58.gz 21.75MB Kongsberg multibeam vendor format
1000_20110313_110154_melville.all.mb58.gz 21.72MB Kongsberg multibeam vendor format
1001_20110313_113141_melville.all.mb58.gz 22.10MB Kongsberg multibeam vendor format
1002_20110313_120159_melville.all.mb58.gz 21.98MB Kongsberg multibeam vendor format
1003_20110313_123205_melville.all.mb58.gz 21.63MB Kongsberg multibeam vendor format
1004_20110313_130147_melville.all.mb58.gz 22.69MB Kongsberg multibeam vendor format
1005_20110313_133148_melville.all.mb58.gz 22.51MB Kongsberg multibeam vendor format
1006_20110313_140213_melville.all.mb58.gz 21.49MB Kongsberg multibeam vendor format
1007_20110313_143209_melville.all.mb58.gz 21.22MB Kongsberg multibeam vendor format
1008_20110313_150152_melville.all.mb58.gz 21.91MB Kongsberg multibeam vendor format
1009_20110313_153205_melville.all.mb58.gz 22.56MB Kongsberg multibeam vendor format
1010_20110313_160159_melville.all.mb58.gz 25.08MB Kongsberg multibeam vendor format
1011_20110313_163138_melville.all.mb58.gz 26.81MB Kongsberg multibeam vendor format
1012_20110313_170143_melville.all.mb58.gz 31.12MB Kongsberg multibeam vendor format
1013_20110313_173138_melville.all.mb58.gz 42.83MB Kongsberg multibeam vendor format
1014_20110313_180138_melville.all.mb58.gz 50.63MB Kongsberg multibeam vendor format
1015_20110313_183139_melville.all.mb58.gz 45.31MB Kongsberg multibeam vendor format
1016_20110313_190141_melville.all.mb58.gz 37.74MB Kongsberg multibeam vendor format
1017_20110313_193138_melville.all.mb58.gz 32.24MB Kongsberg multibeam vendor format
1018_20110313_200143_melville.all.mb58.gz 27.45MB Kongsberg multibeam vendor format
1019_20110313_203147_melville.all.mb58.gz 29.59MB Kongsberg multibeam vendor format
1020_20110313_210147_melville.all.mb58.gz 29.10MB Kongsberg multibeam vendor format
1021_20110313_213143_melville.all.mb58.gz 28.62MB Kongsberg multibeam vendor format
1022_20110313_220144_melville.all.mb58.gz 28.44MB Kongsberg multibeam vendor format
1023_20110313_223144_melville.all.mb58.gz 27.85MB Kongsberg multibeam vendor format
1024_20110313_230144_melville.all.mb58.gz 28.66MB Kongsberg multibeam vendor format
1025_20110313_233139_melville.all.mb58.gz 28.78MB Kongsberg multibeam vendor format
1026_20110314_000142_melville.all.mb58.gz 28.01MB Kongsberg multibeam vendor format
1027_20110314_003149_melville.all.mb58.gz 25.99MB Kongsberg multibeam vendor format
1028_20110314_010151_melville.all.mb58.gz 26.15MB Kongsberg multibeam vendor format
1029_20110314_013149_melville.all.mb58.gz 30.50MB Kongsberg multibeam vendor format
1030_20110314_020137_melville.all.mb58.gz 32.34MB Kongsberg multibeam vendor format
1031_20110314_023144_melville.all.mb58.gz 29.39MB Kongsberg multibeam vendor format
1032_20110314_030139_melville.all.mb58.gz 28.26MB Kongsberg multibeam vendor format
1033_20110314_033138_melville.all.mb58.gz 29.33MB Kongsberg multibeam vendor format
1034_20110314_040138_melville.all.mb58.gz 31.75MB Kongsberg multibeam vendor format
1035_20110314_043137_melville.all.mb58.gz 32.40MB Kongsberg multibeam vendor format
1036_20110314_050144_melville.all.mb58.gz 32.99MB Kongsberg multibeam vendor format
1037_20110314_053139_melville.all.mb58.gz 32.92MB Kongsberg multibeam vendor format
1038_20110314_060140_melville.all.mb58.gz 33.71MB Kongsberg multibeam vendor format
1039_20110314_063141_melville.all.mb58.gz 36.67MB Kongsberg multibeam vendor format
1040_20110314_070141_melville.all.mb58.gz 34.67MB Kongsberg multibeam vendor format
1041_20110314_073140_melville.all.mb58.gz 32.52MB Kongsberg multibeam vendor format
1042_20110314_080143_melville.all.mb58.gz 33.49MB Kongsberg multibeam vendor format
1043_20110314_083142_melville.all.mb58.gz 18.01MB Kongsberg multibeam vendor format

Metadata Files: 2

Files File Size Description
MV1102_Multibeam.xml NGDC created ISO metadata
xbt_bag_info.tar.gz 2.1KB Additional cruise information

Ancillary Files: 1

Files File Size Description
xbt.tar.gz 348.7KB Expendable Bathythermograph (XBT) data